GFSWCAN_500_rhum_000.txt.gz
RH
100 100 96 90 86 96 100 100 100 95 89 92 93 88 94 88 97 81 68 68 34 53 80 86 59 45 56 66 81 76 73 77 77 82 86 92 77 85 80 89 97 100 98 91 87 80 66 78 87 93 81 65 82 71
100 100 100 96 92 90 96 100 100 99 100 98 95 95 93 95 93 92 96 92 86 72 64 88 86 86 71 64 82 88 84 98 93 91 90 80 77 70 77 69 80 79 96 94 88 68 80 86 91 78 86 92 86 97
100 100 98 90 98 94 89 92 94 94 96 100 100 100 100 99 99 99 98 100 98 81 68 61 86 99 88 100 96 84 82 99 97 100 92 85 74 74 70 66 70 72 86 72 67 70 82 86 86 94 91 100 100 95
97 90 96 91 100 100 98 98 98 97 97 96 98 100 98 100 100 100 100 100 99 94 78 59 80 93 98 99 99 95 97 100 99 100 95 89 93 83 68 74 72 82 88 91 71 75 57 78 84 88 84 93 94 90
81 83 72 84 98 100 99 100 100 100 95 94 94 98 100 95 100 100 97 98 98 100 85 76 67 66 94 99 100 99 99 100 100 93 91 83 80 93 71 62 59 85 99 100 72 79 81 59 69 85 87 86 89 92
88 88 80 47 46 76 66 47 51 84 91 92 98 94 91 95 100 98 96 86 91 100 99 73 63 61 70 92 98 100 100 98 99 87 84 80 88 100 85 56 68 100 96 96 87 80 74 78 74 81 86 89 94 93
20 14 25 34 28 26 41 44 39 42 37 34 38 54 60 91 100 100 93 84 99 100 99 86 65 49 62 78 87 87 100 100 100 92 79 81 81 100 86 65 91 100 100 97 96 96 84 93 87 89 90 81 66 60
8 8 7 7 6 7 8 8 9 8 7 10 16 33 63 100 100 100 100 100 100 100 100 96 69 61 75 79 82 98 100 100 88 86 75 85 92 100 81 97 95 95 94 87 98 100 100 93 93 80 78 68 62 46
9 8 8 8 7 6 6 6 5 3 2 2 6 36 61 88 100 100 100 100 100 100 100 84 75 84 85 99 100 100 100 90 84 70 76 98 81 83 100 94 90 89 89 90 95 100 93 70 67 68 57 46 47 44
12 10 9 7 6 6 5 5 5 4 4 3 3 4 17 52 98 100 100 100 100 100 99 85 83 89 100 100 100 100 87 85 79 62 75 73 65 82 91 87 84 82 78 84 83 76 70 67 65 49 42 48 49 51
15 13 11 9 6 4 4 4 4 4 4 4 4 5 7 10 25 65 94 95 100 99 100 99 100 100 100 100 100 100 95 91 79 62 76 76 71 83 74 88 89 83 78 75 76 75 66 53 47 37 42 41 43 72
18 15 12 10 9 7 6 5 5 5 6 6 7 8 9 11 12 21 30 52 81 100 100 100 100 99 99 99 100 100 100 100 93 83 81 72 81 77 83 93 90 90 87 82 82 81 49 44 36 44 40 43 90 94
26 21 17 14 11 8 7 6 7 7 7 8 8 9 9 16 20 16 19 28 60 94 98 92 91 96 97 99 100 100 99 98 93 86 83 93 98 92 96 94 95 93 85 83 82 60 32 22 21 26 30 93 99 95
55 44 37 30 22 20 18 15 15 14 13 12 10 9 12 13 11 24 64 83 95 100 100 86 86 86 85 85 95 98 93 92 100 100 100 100 98 97 88 76 71 61 45 33 20 17 10 10 18 66 100 100 100 100
88 76 65 58 51 47 41 39 33 28 26 24 21 18 14 15 28 38 44 63 87 94 97 89 90 90 88 90 88 86 84 80 78 68 55 58 58 57 56 43 25 13 10 10 10 12 16 18 58 100 100 100 100 100
84 73 69 64 61 58 53 48 44 43 41 40 35 32 35 39 43 41 42 42 41 39 39 49 53 54 54 55 58 55 49 46 31 30 20 19 18 16 12 11 11 12 15 17 18 27 41 81 100 100 100 100 100 100
81 67 61 57 52 47 43 40 40 39 35 33 35 40 41 39 38 41 41 46 47 48 52 52 49 46 38 27 23 23 24 26 28 23 19 18 17 18 19 18 19 20 19 20 68 100 100 100 100 100 100 100 100 100
65 57 50 46 43 42 42 37 39 35 39 43 38 30 28 28 35 44 57 56 56 55 53 47 41 34 31 28 24 26 28 27 26 22 20 21 22 26 29 27 24 22 22 90 100 100 100 100 100 100 100 100 100 100
90 84 72 60 53 50 47 45 41 35 30 28 31 38 46 49 54 57 58 56 51 43 38 34 34 28 30 35 37 36 33 34 31 24 21 24 34 35 36 35 33 35 92 100 100 100 100 100 100 100 100 100 100 100
46 43 43 42 43 42 42 38 41 44 38 45 51 56 57 57 57 54 50 51 50 45 38 35 35 40 44 42 45 44 38 37 35 27 23 27 38 39 40 82 93 82 100 100 100 100 100 100 100 100 100 100 100 94
70 90 85 79 78 74 66 57 54 51 55 53 52 53 53 53 54 59 64 65 55 53 53 51 49 45 43 39 36 34 30 29 27 28 24 24 36 38 100 100 100 100 100 100 100 100 100 98 100 100 100 100 89 35
82 72 66 67 76 82 66 53 61 64 60 60 61 69 68 68 73 75 72 62 52 46 49 48 40 40 35 27 23 23 23 26 26 25 29 35 36 77 99 100 100 100 100 100 100 99 98 100 100 100 100 93 43 21
91 86 95 98 98 73 46 42 51 64 75 73 77 72 66 71 66 58 46 38 37 53 63 58 54 47 44 38 40 40 44 37 26 35 35 46 44 94 100 100 100 100 100 100 100 100 100 96 100 100 100 54 24 26
100 100 100 100 94 85 74 73 75 86 86 79 75 65 62 65 64 59 47 47 60 54 54 53 55 54 55 56 48 40 41 35 33 36 41 42 40 80 100 100 99 99 100 96 72 70 92 100 100 100 79 32 26 31
100 100 93 78 74 73 78 88 86 78 65 75 80 76 82 95 82 62 46 60 83 62 54 57 68 83 83 90 85 60 32 29 29 26 26 28 26 32 80 100 100 100 92 67 41 95 100 100 100 100 60 29 29 35
98 89 78 67 74 82 70 66 66 66 79 96 100 100 90 81 66 52 73 94 80 78 82 80 88 100 100 97 66 38 81 100 100 40 20 21 32 42 55 74 89 88 87 96 100 100 100 100 100 98 44 27 30 36
67 57 56 53 58 69 69 73 96 100 94 92 94 100 100 88 59 74 99 82 87 88 84 88 96 99 95 94 79 66 79 100 100 71 57 53 42 42 49 57 86 100 100 100 100 100 100 100 100 79 32 22 28 34
49 60 63 74 74 80 87 91 87 72 69 81 88 97 86 60 83 100 98 85 90 93 90 94 98 100 96 88 80 70 79 73 82 79 73 76 83 87 96 100 100 100 100 100 100 100 100 100 100 85 45 26 29 34
80 91 98 95 100 100 100 82 66 78 100 100 99 79 66 83 90 83 88 89 93 92 98 97 97 96 94 90 82 77 72 68 88 100 100 100 97 99 97 100 100 100 100 100 100 100 100 100 100 100 90 66 53 49
78 99 100 100 100 100 100 94 82 100 100 97 91 74 68 98 100 85 90 88 90 93 95 90 74 76 84 100 100 82 71 67 66 68 96 100 100 100 100 100 100 100 100 100 100 100 100 100 100 100 100 100 93 88
100 100 95 85 89 100 100 94 82 93 96 81 78 78 89 100 100 100 100 93 100 95 94 80 56 57 72 90 98 98 100 97 91 95 98 100 100 100 100 100 100 100 97 94 99 100 100 100 100 100 100 100 100 100
100 100 100 100 100 100 100 100 91 81 81 79 79 84 89 97 94 82 95 100 100 94 93 99 97 70 66 88 93 95 98 100 100 100 100 100 100 100 100 100 96 100 100 100 100 100 100 100 100 100 100 100 100 100
100 100 100 96 100 99 100 100 100 100 91 82 90 100 100 100 100 100 100 99 93 100 100 100 100 95 73 73 84 90 99 100 100 100 100 100 100 100 100 100 100 100 100 100 100 100 100 100 100 100 100 100 100 100

GFSWCAN_500_rhum_003.txt.gz
RH
99 99 99 99 100 99 100 85 92 96 80 71 70 77 82 89 95 100 100 100 99 90 93 82 51 39 39 75 96 86 67 62 68 69 70 78 72 74 74 81 87 92 98 97 96 92 80 81 97 100 100 86 96 77
97 98 99 98 99 100 100 99 84 83 92 93 100 99 100 100 94 92 99 100 94 91 92 81 74 77 56 58 78 94 93 90 89 88 81 75 70 65 69 62 84 82 100 95 97 85 85 97 100 93 96 76 69 76
92 93 99 99 100 99 96 95 90 88 85 81 84 92 92 92 93 90 91 91 86 87 80 77 94 100 94 100 95 87 92 100 94 97 93 78 70 70 76 66 72 74 91 86 87 69 86 85 96 98 82 81 80 85
98 96 97 100 100 100 98 95 100 100 97 86 94 94 90 95 98 95 92 100 98 90 76 67 88 88 94 96 99 92 92 100 100 100 95 79 80 80 69 72 74 82 89 99 76 88 95 94 94 90 90 91 87 85
100 99 100 99 100 100 100 99 98 100 100 100 99 99 99 100 100 99 99 98 100 100 79 71 71 78 90 89 97 99 97 99 100 95 94 81 88 100 81 60 57 90 95 100 96 83 90 64 90 100 94 81 78 89
100 100 100 100 100 100 100 96 96 100 100 100 100 100 100 100 100 100 95 89 100 100 99 72 61 62 74 87 90 100 99 91 100 99 75 68 91 100 82 57 60 91 100 100 85 89 95 93 80 76 70 70 82 99
99 100 100 100 100 100 94 92 93 99 100 100 99 97 99 100 99 100 93 82 99 100 100 90 67 50 61 73 98 100 100 100 99 97 83 92 94 100 86 64 83 99 94 89 98 97 85 80 75 66 72 84 95 98
100 100 100 100 100 100 94 92 82 74 60 79 86 86 79 69 58 70 80 68 66 99 100 99 75 62 62 72 92 95 96 100 95 93 81 97 95 97 73 80 78 78 86 88 87 89 91 82 76 84 91 97 93 84
95 95 98 98 91 96 91 74 73 65 56 54 46 10 6 7 12 13 41 58 86 100 100 98 90 88 78 81 94 100 99 91 92 74 77 98 69 66 88 94 89 92 89 83 83 100 100 100 99 98 99 91 75 62
19 42 59 70 74 69 55 30 13 7 5 5 6 3 1 2 3 7 39 100 100 98 100 100 96 100 100 100 98 100 95 90 87 64 78 83 67 76 99 84 83 75 69 80 95 97 100 97 95 95 83 70 55 28
33 16 13 10 20 24 28 15 8 5 4 3 3 4 4 3 8 18 45 61 80 93 97 82 100 100 100 100 100 100 100 99 91 72 81 78 69 81 79 72 59 58 62 68 82 94 94 90 74 63 51 32 10 7
23 25 24 16 11 9 7 7 8 9 8 6 5 5 5 5 6 7 7 14 22 41 51 79 76 75 82 94 98 99 100 99 92 80 76 56 60 68 48 48 65 58 55 61 65 68 70 68 46 22 5 3 7 17
16 16 17 16 15 15 14 12 11 10 10 8 6 5 5 7 10 9 10 15 22 24 25 27 25 25 26 27 31 39 47 55 52 50 51 50 100 78 87 85 83 97 83 78 76 67 21 2 0 2 7 14 25 41
30 24 20 21 20 19 18 17 16 15 14 12 11 10 8 8 6 6 9 14 16 16 16 16 14 14 16 22 29 32 34 33 44 62 67 97 87 81 72 65 55 45 24 15 11 9 6 6 8 18 26 35 70 100
48 46 48 44 42 36 35 32 27 21 19 19 17 16 12 10 10 11 12 14 16 17 14 13 13 13 12 11 16 21 24 13 9 18 34 54 66 69 46 36 23 16 12 12 12 12 14 16 25 34 56 94 100 100
77 77 78 79 76 68 63 55 47 43 39 35 27 18 16 18 23 27 27 25 25 25 24 25 26 25 22 21 18 14 15 15 26 46 52 44 39 30 24 22 24 22 21 21 20 21 25 31 37 99 100 100 100 100
100 99 92 96 94 92 90 76 67 60 56 42 32 35 41 44 50 50 45 45 42 41 40 38 35 33 35 28 23 25 36 40 36 31 33 34 29 25 23 26 28 26 21 19 25 32 38 49 100 100 100 100 100 100
100 100 100 100 100 94 86 82 80 72 62 55 52 49 50 52 49 45 45 45 45 41 36 35 38 39 38 35 42 45 41 34 31 30 28 28 30 29 32 34 30 26 22 27 34 47 62 100 100 100 100 100 100 100
97 98 97 95 88 79 74 68 63 59 54 51 48 47 48 46 46 46 44 41 42 48 53 51 52 43 49 52 47 40 35 35 35 34 31 32 36 37 36 35 33 30 36 45 82 85 97 100 100 100 100 100 100 100
94 91 88 85 86 85 85 80 77 72 67 64 61 58 55 51 49 49 51 55 59 61 59 52 49 49 47 40 41 43 42 41 38 32 26 24 24 26 28 28 30 30 49 100 100 100 100 100 100 100 100 100 97 100
100 100 97 89 74 60 54 51 50 49 49 49 51 54 55 59 60 60 61 66 62 54 51 52 46 42 44 41 38 40 37 32 26 26 21 16 17 21 25 27 30 38 98 99 100 100 100 100 100 99 96 99 100 100
75 68 68 79 83 81 70 61 62 60 54 51 57 70 69 68 68 72 74 66 59 61 70 60 48 44 40 36 40 40 38 36 36 35 32 32 27 28 27 31 36 65 100 100 100 100 100 100 100 99 100 100 100 100
84 90 89 85 79 68 55 58 61 67 73 71 78 83 84 87 84 79 67 54 53 64 62 47 49 51 49 44 43 42 43 34 28 29 30 35 35 32 33 39 41 68 100 100 100 100 100 100 92 80 99 100 100 100
99 94 89 81 74 71 55 54 56 66 73 75 80 75 71 66 59 53 47 44 57 54 52 64 66 54 48 48 45 44 53 30 24 27 36 34 37 40 39 40 36 36 80 100 94 89 93 76 66 82 99 100 100 100
100 100 92 76 73 65 64 71 76 83 85 98 85 67 57 55 50 44 42 52 54 58 65 73 79 72 56 52 78 87 73 49 47 97 100 93 60 18 14 16 16 19 29 60 85 97 98 97 100 100 100 100 100 100
100 89 75 68 66 72 78 90 94 94 88 78 63 66 77 79 78 56 47 60 58 90 95 89 88 85 99 100 100 100 86 71 100 100 100 100 86 46 35 24 48 90 90 97 100 100 100 100 100 100 100 100 100 98
82 67 67 72 82 88 95 86 88 78 75 77 81 92 97 96 77 62 63 60 85 86 82 81 80 97 87 94 100 100 91 72 78 100 99 92 72 68 87 87 80 86 100 100 100 100 100 100 100 100 100 96 95 93
65 68 70 80 86 80 73 73 70 73 78 83 97 100 99 85 73 74 61 75 93 88 87 90 86 81 84 88 91 93 99 82 77 83 83 88 97 98 99 100 100 100 100 100 100 100 100 100 100 100 98 96 96 100
62 79 100 98 100 98 96 95 100 100 100 100 100 88 80 74 80 71 68 86 100 100 100 100 100 84 84 77 79 74 78 78 74 74 73 85 98 98 88 94 100 100 100 100 100 100 100 100 100 100 100 100 100 98
79 100 100 100 100 90 87 100 100 100 100 100 88 74 62 72 89 73 86 99 100 100 100 100 97 92 96 76 68 73 78 75 76 76 78 82 79 86 100 100 100 100 100 100 100 100 100 100 99 97 100 100 100 100
94 100 99 100 94 100 100 100 93 87 100 100 92 71 67 86 85 90 97 94 99 100 99 95 94 91 97 100 95 72 75 92 96 98 98 100 98 100 100 100 98 98 100 100 99 99 90 91 100 100 100 100 100 100
73 82 97 100 100 100 100 100 99 91 88 79 84 92 95 91 84 82 100 100 100 100 100 92 88 93 100 100 100 85 68 75 90 99 100 100 98 100 100 100 100 100 100 100 100 100 100 100 100 100 100 100 100 100
64 67 74 90 95 94 99 99 84 85 93 94 92 93 88 89 90 83 100 100 98 95 90 84 89 99 100 100 100 100 100 98 96 98 100 100 100 100 100 100 100 100 100 100 100 100 100 100 100 100 100 100 100 100

GFSWCAN_500_rhum_006.txt.gz
RH
96 100 94 93 94 98 96 96 86 82 77 47 29 19 31 30 20 28 24 39 65 81 77 94 99 100 100 92 90 62 60 61 57 54 61 75 66 78 71 74 80 85 87 91 78 79 66 87 97 100 100 87 98 92
91 97 99 98 99 100 98 100 98 90 100 87 62 52 56 53 75 57 60 71 84 90 86 98 98 100 96 99 91 85 82 90 87 90 82 74 72 67 70 56 77 80 100 89 91 91 84 83 96 77 99 100 94 88
87 85 96 91 96 100 100 100 100 95 100 100 98 88 84 90 88 95 96 96 96 87 85 87 99 100 84 98 98 83 100 100 100 100 93 74 68 68 63 53 61 72 100 90 74 71 79 70 81 85 94 89 85 97
88 83 76 77 91 99 100 100 100 98 100 100 100 100 100 100 99 94 88 94 99 94 84 78 92 90 99 96 99 98 93 100 100 100 95 74 74 68 55 59 59 89 98 97 56 58 63 61 73 81 90 100 93 95
98 92 77 84 98 100 98 97 95 99 99 100 99 99 100 100 99 98 96 97 99 100 87 78 76 90 100 98 100 100 100 100 100 98 90 80 78 95 62 53 54 95 100 96 71 70 76 62 64 62 74 97 86 75
100 100 98 88 100 100 94 96 98 97 100 100 100 100 100 100 100 100 95 95 100 100 96 74 66 69 87 93 95 100 100 98 100 99 84 71 80 100 78 49 74 100 100 100 93 80 71 65 64 70 69 73 66 71
100 100 100 100 98 100 98 96 100 100 100 100 100 100 100 100 100 99 78 78 100 100 100 91 64 52 63 72 95 100 100 96 94 85 85 93 93 100 86 57 73 93 88 78 74 71 58 72 66 63 52 47 83 100
100 100 100 100 100 100 100 100 99 100 100 100 100 100 100 100 99 95 88 92 90 100 99 94 82 67 67 68 76 90 100 100 100 91 79 91 97 92 79 80 82 79 75 70 65 75 82 64 47 41 56 100 99 98
100 100 100 100 100 100 100 100 100 100 100 100 99 93 73 90 99 98 100 90 90 79 52 55 55 52 61 63 65 72 85 91 97 76 81 99 70 66 92 89 84 80 73 65 55 52 44 36 35 55 72 84 94 99
95 98 100 99 100 100 100 100 100 100 100 100 100 98 97 92 72 41 40 58 52 34 21 19 29 36 65 66 70 70 74 87 91 74 100 91 70 65 76 78 72 41 27 26 23 28 54 62 93 85 100 100 100 86
94 93 95 96 97 100 100 100 100 100 96 96 99 99 81 60 52 34 16 17 22 18 17 13 19 40 58 83 98 100 100 100 94 60 68 45 23 43 32 25 19 16 12 15 17 35 61 87 100 99 97 85 32 9
73 87 91 85 82 75 80 89 92 98 94 90 95 68 31 17 9 6 4 4 4 10 14 14 36 72 69 94 100 100 100 85 49 34 31 20 21 19 16 8 9 10 15 26 54 95 100 100 99 55 15 7 6 9
36 44 57 66 80 84 71 57 51 30 18 34 55 50 52 45 46 41 33 22 12 8 7 9 12 12 12 14 17 24 26 27 24 18 12 10 24 15 16 11 12 34 26 33 34 31 28 23 16 14 12 13 15 18
25 25 23 20 27 38 42 51 50 50 54 45 23 18 17 20 24 21 14 12 12 11 10 9 9 10 12 14 17 14 18 15 12 10 10 22 30 26 23 18 24 22 34 42 40 31 21 17 17 18 18 20 26 36
20 17 16 15 13 14 15 16 16 17 18 19 19 21 18 18 18 19 18 17 15 14 13 12 11 11 11 13 15 14 14 13 14 18 34 58 67 55 51 48 49 40 33 29 27 23 23 24 22 18 20 35 41 85
39 30 30 25 19 20 23 24 20 25 27 31 26 20 19 22 28 30 29 27 23 21 21 21 20 20 19 21 19 17 22 24 28 37 48 35 36 46 44 41 36 31 29 28 34 32 29 25 21 29 41 48 83 100
78 64 56 53 53 51 44 46 56 60 51 38 35 41 43 45 48 47 44 40 36 34 33 38 40 42 39 30 25 31 36 34 32 30 31 34 41 42 37 33 32 36 35 34 38 34 30 26 27 48 58 77 100 100
88 80 77 88 89 86 85 86 94 86 70 63 59 65 68 69 71 68 66 60 54 55 56 58 56 48 42 41 43 41 39 39 36 35 40 38 38 36 35 35 33 34 33 32 32 31 30 28 39 85 98 100 100 100
88 87 87 95 100 100 100 100 99 88 84 84 82 80 80 79 74 69 64 63 64 63 60 53 48 44 44 44 43 42 39 39 39 37 35 37 40 38 34 33 30 26 24 23 23 24 27 35 86 100 100 100 100 100
97 99 100 100 100 100 100 92 93 90 85 81 77 71 67 63 61 60 62 61 60 57 54 54 55 53 51 46 44 43 41 41 43 45 39 34 32 31 27 29 31 30 27 28 23 25 28 86 100 100 100 100 100 100
100 100 100 99 95 93 88 85 82 83 85 81 76 73 71 71 70 68 67 66 64 58 50 47 46 43 42 40 39 44 46 48 44 45 37 30 26 34 32 30 36 38 60 52 31 30 59 100 100 100 100 100 100 99
100 100 100 100 100 99 94 87 85 69 61 59 59 63 60 61 66 65 61 45 40 45 52 49 42 41 42 45 49 47 46 48 44 35 34 42 38 28 28 33 51 98 100 56 41 44 97 100 100 100 100 100 98 77
100 100 100 100 94 80 72 75 71 66 64 63 67 66 66 66 60 58 42 37 51 72 65 56 54 52 48 43 46 57 55 49 43 43 59 71 50 34 32 35 42 44 44 51 50 55 100 100 100 94 91 92 79 91
100 97 96 92 84 79 70 63 61 65 73 78 82 83 73 70 66 54 40 55 63 58 49 47 48 49 72 86 78 57 56 70 80 95 94 59 41 82 90 65 34 34 36 40 34 30 43 91 96 92 97 97 99 100
100 99 74 62 60 60 60 66 73 78 79 85 79 65 58 67 60 51 43 49 62 47 48 53 59 89 78 69 69 76 94 100 100 100 97 100 100 82 81 84 42 19 17 16 22 28 51 100 100 100 100 100 100 100
96 87 75 73 70 73 71 76 79 84 83 80 73 75 77 68 51 34 46 85 67 62 59 63 86 87 82 76 71 82 100 100 89 77 93 100 100 99 83 71 51 68 69 60 80 99 100 100 100 100 100 100 100 100
89 69 64 69 83 85 86 91 100 100 92 69 60 66 73 63 47 59 100 83 75 69 71 78 84 71 72 79 90 100 92 86 79 74 71 94 92 77 75 75 81 78 91 98 98 100 100 100 100 100 100 95 100 100
74 79 81 92 99 99 100 98 77 58 54 66 83 98 88 79 76 87 96 85 70 68 73 86 100 97 86 84 86 92 94 78 70 62 60 61 58 69 80 79 95 95 95 100 100 100 100 100 100 100 99 100 100 100
78 84 100 96 96 90 71 63 74 92 100 100 98 91 90 90 89 95 99 84 66 77 93 100 100 100 92 90 89 100 97 75 54 59 65 72 78 85 84 85 99 100 100 100 100 100 100 100 100 100 100 100 100 100
81 98 87 75 78 71 83 100 89 98 100 100 98 83 76 93 100 93 76 72 84 91 87 86 89 87 79 82 98 100 98 96 84 57 58 78 90 100 100 100 94 98 100 100 100 100 100 100 100 100 100 100 99 95
72 82 76 80 82 92 100 100 100 96 86 92 99 97 90 86 82 82 77 93 100 96 94 92 88 80 84 96 93 89 94 97 99 75 58 69 91 99 100 100 100 100 100 100 100 97 94 96 97 100 100 100 99 100
66 66 70 66 71 87 97 93 93 88 93 94 94 94 96 92 76 67 82 100 100 97 89 84 86 94 98 93 90 93 96 98 100 100 99 92 89 95 97 100 100 100 100 100 100 100 100 100 100 100 100 100 100 100
87 89 87 81 76 75 83 80 78 88 100 100 100 97 98 88 69 61 70 91 90 89 94 99 99 100 98 93 90 93 96 96 95 96 99 99 100 100 100 100 100 100 100 100 100 100 100 100 100 100 100 100 100 100

GFSWCAN_500_rhum_009.txt.gz
RH
100 100 89 43 24 17 23 16 29 27 12 11 13 11 10 10 10 9 10 8 18 16 17 22 32 40 66 88 86 82 88 94 86 81 76 75 61 70 64 66 73 76 81 79 67 61 65 79 78 93 83 71 78 66
96 96 93 97 76 33 34 48 52 61 44 56 61 77 62 60 34 26 44 34 17 23 24 45 59 61 82 96 93 95 97 94 84 86 82 67 67 57 66 57 78 71 98 90 94 69 79 96 99 90 100 90 77 68
99 100 100 100 96 96 93 88 70 68 75 97 100 99 99 97 97 98 87 54 45 45 62 80 95 99 99 98 97 90 100 100 91 93 83 71 61 63 64 57 63 70 99 93 85 75 75 79 81 94 82 75 70 60
88 93 99 96 82 82 84 93 97 89 91 100 100 100 100 100 97 92 100 95 83 74 79 82 97 97 98 95 99 95 96 99 99 100 91 75 74 73 57 60 60 78 93 98 68 85 76 72 83 70 69 70 61 72
83 73 76 83 77 65 69 71 90 100 100 100 100 100 99 98 95 96 94 89 96 100 85 77 81 96 99 99 100 99 97 100 100 97 93 86 88 97 69 60 57 83 99 99 81 80 82 65 64 76 72 65 50 26
92 97 83 72 68 68 60 76 73 90 97 100 100 100 100 100 98 98 87 89 100 100 91 62 62 77 98 98 96 100 100 97 98 98 84 71 82 100 73 57 73 100 100 100 94 90 84 80 83 72 40 17 16 14
100 94 89 76 68 65 72 77 74 81 82 98 100 100 100 100 97 93 78 84 100 100 93 69 54 46 69 85 88 88 99 99 95 93 84 86 75 86 77 63 74 96 99 96 100 100 76 47 36 28 15 21 32 23
100 100 100 100 93 80 66 70 64 77 77 89 100 100 100 100 97 89 84 88 100 100 100 84 51 50 52 60 78 83 75 84 80 71 63 70 64 66 63 79 100 83 86 93 85 55 38 24 13 10 20 32 47 67
100 100 96 100 100 92 75 98 82 83 91 92 100 100 100 96 95 95 100 100 100 100 100 84 72 63 56 67 78 73 49 44 49 47 53 67 49 61 98 100 100 94 66 42 28 22 15 9 10 30 29 60 64 92
100 100 100 100 100 100 93 97 97 94 100 100 100 99 100 99 100 100 100 100 100 98 96 87 87 93 85 76 76 50 34 32 32 30 40 42 38 53 98 100 86 34 18 18 14 9 13 18 24 34 49 67 91 100
98 98 100 100 100 100 100 100 100 100 100 99 100 100 98 100 100 99 94 90 82 76 77 77 76 74 72 50 38 49 67 62 41 31 36 28 23 27 23 15 12 10 9 11 14 18 35 61 66 74 76 99 73 34
98 100 100 100 100 100 100 100 100 100 100 100 100 100 100 100 100 100 95 92 95 92 80 64 45 17 8 7 7 14 24 24 18 25 24 20 15 16 14 10 10 10 12 17 28 35 28 46 75 63 43 32 23 20
63 86 98 100 100 100 100 100 100 100 100 100 100 100 99 100 100 96 89 83 64 46 35 40 45 47 49 38 30 28 28 24 20 17 12 12 13 12 12 13 14 16 24 32 26 25 32 41 43 37 30 26 23 26
33 40 63 72 87 93 98 100 100 100 98 95 95 88 65 64 76 73 54 45 43 52 53 57 55 49 37 24 17 17 16 14 12 12 15 19 18 17 18 20 24 30 31 27 29 37 41 39 35 30 27 29 30 29
32 32 32 29 35 46 54 56 68 74 80 83 86 82 85 82 79 72 62 54 47 44 35 30 26 23 19 18 17 17 16 16 18 28 33 30 32 36 39 38 36 33 36 42 40 38 37 34 33 31 32 33 32 30
60 43 33 28 26 25 23 21 20 21 21 23 26 34 27 21 20 22 25 26 25 26 26 23 22 23 23 22 20 18 21 28 47 46 43 43 44 44 42 40 43 45 47 47 42 36 35 36 37 33 30 27 30 38
28 20 24 19 16 15 15 13 14 17 13 10 9 13 16 23 31 34 36 35 38 37 37 40 36 36 33 26 24 40 52 52 50 48 46 44 44 44 45 41 39 34 33 33 35 36 34 31 27 24 23 24 28 80
57 69 61 50 45 37 33 37 34 22 15 17 22 35 37 54 65 62 59 54 61 69 67 63 55 48 47 49 54 57 53 50 49 47 48 50 50 48 42 40 39 41 41 38 33 28 27 27 23 25 27 27 45 100
65 69 74 73 65 60 63 62 55 42 47 51 54 69 82 80 84 86 84 86 84 84 78 71 68 59 58 57 56 56 56 57 57 55 50 42 39 43 42 42 42 37 31 26 28 24 23 26 31 36 33 42 100 100
73 78 90 92 93 88 81 70 80 82 81 86 94 97 94 98 99 97 91 82 75 73 69 64 63 63 62 59 56 50 44 42 44 40 35 40 42 44 42 38 32 28 29 25 22 26 57 68 59 42 54 100 100 100
71 73 80 86 85 90 92 89 98 98 99 96 94 92 87 85 84 85 84 78 68 54 49 51 49 46 44 40 39 46 51 61 53 51 46 41 36 33 31 36 37 38 28 23 28 59 96 81 57 57 100 100 100 100
81 97 100 100 100 99 96 91 91 90 85 85 88 92 82 72 66 61 58 49 43 43 50 40 36 34 35 40 49 51 50 48 45 40 36 51 57 48 56 74 59 40 49 37 36 40 48 59 61 76 100 100 100 100
100 100 100 99 94 89 85 98 100 100 95 84 78 72 68 63 56 56 43 36 40 64 59 50 50 50 49 47 44 47 67 68 50 53 70 80 81 98 100 94 77 92 86 42 36 41 50 50 42 54 98 100 100 100
92 97 97 89 88 91 96 94 92 90 81 69 64 61 56 54 56 46 35 43 68 67 56 49 45 44 44 49 60 62 59 61 61 68 84 94 100 100 97 100 100 100 93 80 58 22 24 28 24 24 80 100 100 100
85 93 83 78 72 63 56 57 65 68 74 90 84 71 63 70 64 53 44 63 66 54 46 44 51 55 54 54 64 71 72 69 67 69 100 100 94 85 89 100 100 96 83 78 94 88 68 82 99 100 100 100 100 100
86 68 60 55 52 56 65 63 69 79 80 75 68 70 67 65 57 44 46 58 49 48 49 62 64 69 71 76 72 78 81 80 77 81 90 85 85 88 88 100 100 100 81 97 100 100 100 100 100 100 100 100 100 100
69 61 59 56 62 76 87 95 100 96 80 70 66 74 79 63 41 40 55 55 59 72 74 83 78 77 81 87 96 100 100 96 80 78 90 91 75 66 67 73 82 86 78 81 96 97 97 100 100 100 100 100 100 100
77 69 77 94 100 100 95 86 74 65 69 76 83 81 64 51 51 75 77 73 80 72 67 77 90 86 82 88 91 92 92 97 91 88 95 100 89 60 58 62 68 74 77 79 94 92 91 97 100 100 100 100 100 100
89 94 96 92 95 91 83 71 66 74 92 92 76 71 72 75 78 89 96 83 78 90 97 100 99 97 100 97 92 89 88 86 80 76 79 92 100 90 63 65 80 94 98 100 99 100 100 100 100 100 100 100 100 100
85 92 86 80 78 69 68 85 74 74 76 84 89 82 73 71 85 78 68 77 88 93 94 86 98 98 88 88 92 91 88 86 84 77 79 98 100 86 62 66 80 86 92 98 100 100 100 100 100 100 100 100 100 100
58 61 62 67 62 64 66 74 71 69 75 83 89 66 64 81 81 87 92 100 100 99 100 100 100 89 90 98 97 91 94 89 87 91 98 99 97 94 93 91 89 90 88 88 93 98 100 100 100 100 100 100 100 100
63 66 68 63 59 63 70 65 61 60 66 73 76 84 86 93 91 79 88 98 100 100 100 100 91 89 96 99 94 97 96 98 96 95 95 94 93 94 95 95 96 98 100 100 100 100 100 100 100 100 100 100 100 100
58 56 61 72 82 85 95 96 77 71 71 75 78 87 86 87 90 90 96 100 100 100 95 93 88 85 90 100 100 100 100 100 97 96 94 92 91 93 95 96 98 99 100 100 100 100 100 100 100 100 100 100 100 100

GFSWCAN_500_rhum_012.txt.gz
RH
100 49 36 46 16 24 30 34 32 29 29 27 25 25 25 23 23 21 19 17 15 14 14 13 12 14 21 23 22 45 66 75 77 88 87 84 72 84 78 82 85 81 79 85 69 66 74 75 88 94 84 69 73 69
96 83 69 66 32 21 20 21 19 29 29 26 25 21 17 15 13 12 12 11 11 14 10 12 12 30 36 34 32 68 85 90 86 83 81 75 77 70 73 62 74 70 89 81 90 68 86 95 99 92 93 80 73 81
100 100 100 100 90 67 52 28 18 13 12 11 11 11 11 13 15 22 67 39 33 44 53 52 68 64 54 61 60 80 98 99 90 93 85 81 70 72 70 56 66 80 100 86 93 90 95 96 100 100 91 84 87 75
100 100 95 100 100 98 67 55 56 29 17 19 21 31 59 56 46 57 91 94 86 92 81 88 92 94 97 94 90 94 93 100 100 95 88 83 74 75 61 68 63 82 89 96 89 96 81 97 92 77 76 86 71 52
98 100 100 97 100 100 92 93 95 86 76 57 55 44 48 61 68 78 90 95 91 91 74 70 82 99 100 99 98 87 94 98 100 95 86 80 80 91 70 60 58 95 89 80 70 89 98 61 58 61 66 44 36 28
100 100 100 100 99 97 93 96 97 91 99 100 100 99 95 96 92 90 85 93 97 93 80 68 72 81 90 91 86 86 89 89 96 88 80 73 92 100 74 56 63 89 77 84 75 81 98 80 84 92 52 30 26 20
100 100 100 100 100 99 98 91 96 95 92 90 93 94 95 96 93 90 80 86 100 100 83 64 54 54 76 76 85 92 98 96 92 88 80 90 94 86 82 59 64 79 77 65 73 93 87 89 85 44 31 22 14 12
100 100 100 100 100 96 98 98 95 92 97 89 91 98 100 93 84 82 88 100 98 100 95 69 55 56 60 84 100 100 100 100 96 96 87 93 89 73 56 54 50 47 43 45 47 36 36 27 23 22 16 16 16 16
100 100 100 100 97 94 75 82 92 96 88 84 93 98 100 91 92 83 97 100 100 100 92 66 60 62 64 77 94 100 100 100 95 92 94 78 65 57 68 76 68 43 35 31 22 18 17 16 17 15 27 55 57 65
90 100 100 100 100 85 81 86 92 87 87 89 88 88 83 94 100 100 100 100 98 88 78 66 71 87 95 99 94 95 90 85 79 71 73 64 53 48 42 30 29 30 25 19 17 13 14 46 51 40 98 83 82 100
95 87 94 99 100 100 100 100 97 100 100 95 89 74 75 93 100 100 100 90 83 77 74 73 91 96 92 88 96 98 90 89 80 68 55 44 35 34 42 45 34 22 15 13 14 15 15 18 29 24 32 61 51 36
100 100 97 96 97 100 100 100 100 100 100 100 100 96 99 90 99 100 95 88 86 94 92 100 100 100 98 98 100 93 89 80 62 53 54 60 55 44 33 21 16 14 15 16 17 20 26 28 32 33 32 30 31 33
81 100 98 96 100 99 96 100 100 100 100 100 100 100 100 99 100 93 94 94 100 100 100 100 100 100 96 88 81 69 70 75 74 67 55 36 24 20 18 19 18 18 21 28 29 30 39 51 46 38 36 37 30 28
36 69 99 99 100 100 99 100 100 100 100 100 100 100 100 94 90 92 100 100 100 100 100 98 98 93 82 80 74 75 65 67 64 48 27 25 23 22 22 25 32 38 40 41 43 44 44 44 44 37 32 34 33 34
35 32 46 76 92 96 98 100 100 100 100 100 100 100 91 93 94 93 96 96 99 99 98 96 94 91 87 86 78 70 56 35 25 32 32 30 31 34 38 44 48 48 47 45 45 47 49 46 36 30 29 33 34 30
54 42 44 39 43 53 62 68 72 73 86 95 95 94 91 94 92 88 82 82 79 75 64 60 50 43 33 28 27 21 21 31 52 46 43 46 54 55 53 50 51 50 50 52 53 50 37 30 31 32 32 28 25 25
76 72 69 55 46 38 32 33 35 36 42 57 56 39 36 29 24 25 25 25 24 24 27 26 25 26 20 17 18 44 56 62 63 56 56 56 55 54 56 58 58 58 55 44 38 41 41 38 32 24 22 20 19 26
94 86 62 36 30 24 21 18 16 13 10 10 11 14 15 17 20 19 19 28 31 33 41 47 34 29 29 41 59 66 67 62 60 59 57 60 63 64 61 55 46 43 44 46 44 38 32 25 24 20 25 35 41 44
75 60 41 28 19 15 17 17 13 10 11 12 13 20 25 32 41 43 45 57 71 83 75 48 43 41 69 71 67 64 64 64 63 61 59 54 48 43 39 41 46 47 43 37 32 28 26 21 24 46 61 51 48 79
46 40 37 37 44 43 41 33 33 30 26 29 40 55 57 76 80 90 99 96 90 76 63 53 66 71 65 52 50 48 49 49 46 41 34 32 35 42 47 45 39 37 37 32 31 31 28 30 38 59 52 47 87 100
60 48 47 47 43 50 56 55 68 63 62 68 78 85 88 95 100 100 99 94 81 68 63 59 50 49 50 46 43 41 40 43 42 44 40 39 40 42 36 41 51 47 56 60 47 71 50 32 38 45 51 53 89 100
58 61 56 52 51 57 61 65 71 80 87 96 97 99 96 97 95 92 83 65 53 55 57 50 45 41 35 33 39 43 44 44 43 43 46 50 41 43 50 56 58 76 88 76 90 90 74 39 29 45 53 51 70 100
75 65 57 54 62 69 73 94 96 100 98 96 100 98 84 74 70 66 55 52 54 59 51 40 37 39 40 45 46 46 47 43 42 50 54 56 58 59 57 65 83 76 63 89 100 89 63 67 50 28 34 33 28 48
68 58 58 66 80 87 98 100 100 100 100 100 97 84 77 71 62 52 40 41 64 63 57 52 49 46 49 47 47 52 54 51 51 62 68 64 63 70 72 72 78 87 78 92 98 85 78 80 90 85 93 92 89 100
66 64 66 83 92 96 93 83 76 70 66 66 59 52 49 55 47 38 37 54 71 65 56 48 48 47 46 52 61 66 65 66 66 81 95 96 92 79 74 82 78 79 72 90 100 100 99 92 91 89 92 98 100 100
67 58 58 68 68 67 70 63 66 78 79 76 70 69 65 58 52 44 50 67 59 51 44 49 54 56 63 63 65 72 75 82 83 86 96 99 100 89 70 75 71 83 72 85 88 88 85 81 90 99 100 99 98 99
62 70 67 53 55 67 68 78 83 69 58 54 55 61 62 56 46 50 67 63 57 58 63 68 69 72 74 77 89 83 79 85 92 87 88 98 100 86 74 76 81 75 69 75 85 89 89 84 86 89 93 99 100 100
66 53 54 78 86 93 90 80 74 71 65 67 68 61 60 57 58 72 68 69 68 60 61 80 100 100 86 69 61 65 79 86 82 85 92 96 86 82 83 87 90 81 60 64 82 98 100 100 100 100 100 100 100 100
73 81 98 100 100 100 93 76 63 63 75 77 67 57 58 59 62 74 86 82 71 72 74 76 86 100 100 95 78 78 86 86 84 87 90 97 100 96 93 94 97 99 85 72 79 87 93 100 100 100 100 100 100 100
100 100 98 93 84 70 75 81 70 70 68 63 60 53 52 56 72 90 64 68 75 78 80 91 97 96 87 84 87 95 99 100 100 99 97 91 82 84 93 99 100 100 100 100 99 100 100 100 100 100 100 100 100 100
81 81 82 84 80 72 66 64 59 59 59 60 64 51 45 52 65 73 77 79 86 94 100 100 94 84 74 75 91 100 100 100 97 98 97 95 93 92 92 91 91 91 91 93 95 97 99 100 100 100 100 100 100 100
62 60 61 60 68 80 80 78 75 69 64 58 52 59 61 65 69 64 74 86 95 100 100 99 100 100 100 100 100 100 100 100 100 100 100 100 98 97 95 92 92 92 93 96 98 100 100 100 100 100 100 100 100 100
89 73 55 43 39 37 40 43 42 42 48 65 78 87 82 78 71 65 68 74 73 72 74 83 95 99 100 100 100 100 100 100 100 100 100 100 100 98 94 90 89 91 93 92 90 87 83 77 73 73 80 92 99 100

GFSWCAN_500_rhum_015.txt.gz
RH
100 91 47 39 29 29 33 33 36 39 39 36 29 22 20 19 19 18 17 17 18 19 21 22 20 17 15 16 15 12 16 21 33 43 53 58 72 76 78 81 93 97 92 93 80 78 83 85 78 78 74 64 70 83
100 99 50 42 37 34 33 34 36 36 38 37 32 26 23 21 21 20 20 21 21 21 20 18 15 17 14 11 11 25 38 50 65 62 68 70 73 70 78 74 89 86 100 84 83 84 100 100 87 80 69 63 71 80
99 100 97 72 30 29 34 35 38 36 35 35 34 31 28 25 24 25 24 23 21 19 16 14 34 65 38 33 43 61 71 91 88 85 88 83 78 74 75 67 72 83 95 71 97 98 100 100 98 87 78 78 88 95
99 100 100 99 99 94 43 51 23 25 30 31 32 35 34 31 29 27 22 16 14 12 13 35 61 76 79 71 76 86 89 88 84 95 90 78 87 82 67 72 74 87 89 96 81 90 85 84 89 67 72 84 100 94
100 100 100 99 99 100 81 79 33 23 24 31 29 16 15 16 14 12 11 13 20 41 51 55 62 77 74 73 85 87 89 87 87 80 77 73 73 84 66 56 51 99 98 84 71 73 63 56 59 50 50 52 53 40
100 100 100 100 97 99 89 81 70 65 53 68 49 42 28 19 16 18 25 34 39 51 57 61 63 74 75 85 84 86 90 90 84 76 64 59 77 81 54 52 71 100 100 100 74 70 65 53 58 55 93 52 36 24
100 100 100 100 100 92 100 100 99 100 100 100 98 85 73 73 54 52 56 67 79 73 74 77 59 55 71 83 90 93 89 87 80 75 67 71 80 90 75 62 100 99 92 88 82 69 62 66 57 59 30 27 20 15
100 100 100 100 100 99 87 95 96 99 100 100 100 100 100 98 96 93 99 96 100 100 96 74 51 55 63 77 97 100 99 96 84 81 77 89 91 99 85 100 98 95 84 77 62 49 36 30 33 36 31 19 14 16
100 100 100 100 100 100 100 99 95 97 100 100 100 100 100 100 92 85 99 100 100 99 90 67 57 60 61 71 88 100 100 100 92 82 95 99 90 98 100 97 93 78 65 49 40 44 51 50 37 25 18 18 31 49
100 100 100 100 100 100 100 100 100 99 100 100 100 100 99 95 99 100 100 100 100 96 82 69 66 75 86 93 100 100 100 100 96 85 96 90 83 81 83 80 70 58 56 63 61 50 35 28 25 21 24 57 75 46
97 99 100 100 100 100 100 100 100 100 100 100 100 100 100 100 100 98 100 94 92 84 79 77 86 100 100 100 100 100 93 92 87 83 89 85 79 83 74 66 66 68 62 50 39 27 26 59 38 28 31 39 36 41
99 100 96 98 100 100 100 99 100 100 100 100 100 100 100 99 100 100 91 91 90 96 89 98 100 100 99 100 100 100 99 94 86 80 82 79 79 78 80 77 68 64 57 40 29 24 22 25 29 33 37 43 46 48
97 100 100 93 90 98 100 100 100 100 99 100 100 100 99 98 97 80 70 66 85 91 93 100 100 100 100 100 100 100 95 91 89 87 84 83 71 72 69 69 67 53 29 21 21 23 31 39 42 46 48 53 54 55
95 99 100 100 94 89 89 89 94 97 100 100 100 99 97 96 86 80 84 86 90 94 92 92 97 93 91 97 99 98 95 91 88 88 71 77 85 78 61 46 31 24 27 32 39 43 48 50 53 56 57 54 42 30
68 76 100 100 100 100 100 100 100 100 100 98 94 96 84 85 89 87 92 98 100 100 98 94 96 95 96 99 95 90 91 94 87 63 58 56 45 35 29 24 30 44 48 50 55 57 57 55 51 40 30 28 33 33
86 67 62 82 100 100 100 100 100 100 100 100 93 83 89 95 96 96 94 91 90 90 93 98 97 93 92 89 84 71 52 46 54 45 38 30 25 26 37 52 61 61 58 56 50 47 41 34 30 29 32 32 26 26
96 74 71 69 66 71 89 98 100 100 98 93 92 100 98 98 99 94 92 91 87 83 85 82 78 60 58 50 36 48 56 50 37 27 26 36 46 56 63 60 55 48 44 44 39 34 35 36 35 30 23 26 26 30
99 100 88 83 87 80 66 54 54 51 55 59 54 45 43 45 44 38 35 32 30 27 24 22 21 19 20 36 62 70 58 34 30 38 42 57 63 59 52 45 43 43 42 42 44 40 35 30 27 28 28 27 33 55
100 100 99 90 79 72 67 52 36 27 22 21 20 18 17 15 13 12 13 15 15 19 18 16 15 22 64 77 65 56 55 58 55 53 50 47 47 45 39 38 44 45 44 42 36 34 36 34 40 40 32 32 37 44
95 94 88 84 72 50 29 20 19 16 16 26 30 24 17 17 20 24 24 30 42 32 24 26 61 80 62 52 63 63 58 53 46 41 38 35 33 34 40 46 46 42 38 39 44 40 41 56 77 67 48 37 44 47
93 81 72 53 36 26 25 20 27 26 23 28 32 33 38 46 47 49 58 62 45 40 45 70 64 58 66 63 57 52 48 43 39 34 28 26 36 42 41 42 42 45 48 45 41 50 56 73 81 64 51 30 40 52
80 68 53 44 39 37 34 30 31 32 30 37 51 64 63 65 68 72 62 56 54 72 76 69 62 58 56 53 46 40 36 34 33 37 42 41 37 36 42 50 49 53 56 54 44 50 66 97 84 68 64 66 40 32
67 61 57 50 43 38 36 42 49 53 54 65 84 77 76 83 81 79 70 66 67 74 66 54 50 44 37 32 33 38 44 41 42 44 44 44 45 51 53 69 68 64 67 63 55 60 74 100 98 89 81 73 75 70
73 58 51 50 52 50 52 61 75 90 92 99 93 88 85 87 80 76 62 59 59 52 44 40 38 34 35 40 44 46 47 47 47 52 57 58 62 62 66 70 75 91 90 73 73 60 63 68 76 84 93 83 90 92
63 73 64 55 54 54 75 100 100 100 100 98 90 85 70 64 56 47 39 45 52 51 49 48 47 47 45 48 44 44 51 55 65 70 81 80 79 78 78 84 94 100 98 85 92 78 64 61 66 71 73 69 74 89
66 61 64 62 65 77 100 99 95 86 78 70 62 57 53 48 42 41 42 52 51 51 53 52 51 49 44 40 44 57 68 69 69 63 58 67 77 81 72 73 85 98 94 89 91 84 66 64 69 78 84 85 94 98
69 83 74 68 70 78 69 68 67 67 66 65 59 56 51 45 43 45 57 60 58 67 65 61 54 54 65 92 95 84 85 81 69 65 70 88 90 81 75 79 80 88 86 92 100 86 60 60 76 90 93 93 100 100
90 76 69 84 86 82 68 61 65 72 71 65 59 58 57 54 56 58 60 75 88 73 60 61 74 86 91 81 82 94 94 89 75 76 89 93 95 95 86 87 76 74 79 86 89 98 100 97 92 93 93 90 94 100
75 64 67 83 86 78 70 73 65 60 67 74 71 65 72 65 56 57 76 84 70 59 62 74 88 84 70 72 80 87 86 84 82 91 94 89 98 98 99 95 90 84 86 90 90 89 92 96 99 100 100 100 100 100
99 95 85 76 67 63 68 76 74 86 84 80 70 59 51 50 57 67 74 71 61 64 74 82 82 84 83 77 75 76 80 88 87 84 86 87 90 98 100 100 100 97 95 95 94 91 90 92 93 95 100 100 100 100
70 67 68 70 67 70 70 64 63 69 71 72 76 71 67 72 70 66 66 59 54 63 78 87 80 76 74 75 77 83 90 96 99 95 94 97 99 100 99 100 100 100 100 97 96 95 95 98 99 100 100 100 100 100
76 72 60 53 56 72 78 76 68 53 42 39 40 42 42 44 50 61 64 59 55 60 70 76 76 74 76 74 73 74 85 90 88 89 92 94 94 97 97 98 99 100 100 100 100 90 77 70 68 67 67 65 66 71
65 76 83 79 70 59 44 37 36 37 40 35 25 33 42 46 45 42 49 72 72 68 66 70 74 75 79 81 87 92 91 83 72 74 91 99 100 100 100 100 100 99 93 73 54 50 49 49 49 49 50 52 56 64

GFSWCAN_500_rhum_018.txt.gz
RH
98 80 67 41 26 20 21 23 26 35 37 33 26 21 17 14 13 12 13 14 14 14 13 13 15 18 20 20 20 17 16 24 25 22 30 37 53 66 73 77 84 86 92 96 84 86 83 77 67 65 61 58 63 60
99 99 87 93 53 24 24 28 27 28 37 39 37 30 26 24 20 19 18 17 16 16 17 17 18 20 21 20 18 15 33 57 60 51 55 57 67 72 76 71 77 83 96 88 89 79 83 76 70 76 69 68 70 68
95 89 88 98 83 31 28 34 37 34 35 38 41 41 37 34 30 25 21 21 20 20 20 20 22 22 21 19 16 24 48 57 60 60 60 66 67 74 80 65 74 76 77 70 69 79 78 73 83 82 83 85 80 75
100 94 97 95 68 58 39 35 40 38 36 37 38 40 41 38 35 31 27 26 25 24 24 24 23 21 18 14 15 32 51 56 57 64 76 81 87 77 68 64 55 60 69 80 70 76 69 88 81 84 82 82 81 100
100 99 90 99 93 100 77 55 53 47 42 40 40 37 37 37 36 34 31 30 30 30 28 25 21 17 14 15 40 56 60 60 65 74 72 79 82 84 67 58 56 85 97 88 76 86 76 69 70 80 90 76 68 56
100 100 94 91 99 100 61 46 38 40 54 49 39 40 38 37 36 33 32 30 27 21 22 17 16 17 27 37 47 55 65 80 82 71 73 75 86 91 64 52 66 96 99 97 85 89 89 93 96 94 82 67 47 37
100 100 97 87 100 98 98 87 81 64 84 54 66 22 22 25 31 33 29 24 22 19 17 15 16 30 55 69 82 93 98 94 84 72 65 67 76 95 68 65 98 100 100 96 94 98 98 95 90 80 65 50 58 61
100 100 100 89 96 100 100 100 100 100 100 99 85 44 34 38 39 53 60 55 61 65 61 45 44 57 67 80 96 97 97 96 83 76 67 75 83 92 79 91 100 100 99 89 89 91 91 86 73 63 66 67 58 43
100 100 100 100 92 97 94 98 100 100 100 100 100 100 99 93 97 90 98 100 100 99 93 76 72 72 69 81 98 99 93 86 80 74 78 84 85 94 98 100 97 91 92 90 86 80 75 72 73 72 64 56 41 30
100 100 100 100 100 100 92 89 100 100 100 100 100 100 99 95 98 100 100 100 100 99 82 72 73 80 88 96 98 100 97 96 83 76 95 92 100 100 100 98 92 85 80 80 82 84 85 77 72 68 51 33 34 36
76 100 100 100 100 100 100 100 100 100 100 100 100 100 100 100 100 100 99 99 95 82 75 72 82 88 92 100 97 94 90 86 77 70 77 72 73 100 94 88 87 89 89 85 77 76 78 72 48 36 35 32 41 44
19 78 100 100 100 100 100 100 100 100 100 100 100 100 100 100 98 96 91 91 90 96 92 100 100 100 99 100 100 96 90 91 88 85 83 73 91 91 85 83 80 80 82 84 88 78 52 36 32 31 35 39 41 42
23 25 72 100 99 100 100 100 100 100 100 100 100 100 100 99 100 92 83 79 92 99 100 100 100 100 97 99 100 96 92 86 80 78 76 88 88 84 83 84 84 82 80 68 48 36 30 28 34 40 39 42 42 39
43 47 84 100 100 100 100 100 100 100 100 100 100 100 100 97 100 100 100 100 100 100 100 100 100 100 100 99 97 92 92 82 88 93 98 92 84 80 78 74 67 57 46 37 30 27 34 44 39 36 39 37 26 20
69 94 100 100 100 100 97 100 100 100 100 100 100 100 97 100 100 100 100 100 99 99 97 93 90 86 84 79 75 77 86 87 89 91 85 78 76 70 62 50 42 32 29 28 37 40 35 31 32 31 25 24 28 28
98 100 100 100 100 100 100 100 100 99 100 100 96 89 90 98 100 100 98 94 92 90 84 81 79 73 77 79 80 85 92 89 82 74 66 58 49 42 44 42 38 37 42 41 33 32 32 29 27 27 27 30 23 23
100 100 100 100 100 100 100 100 100 100 100 90 84 98 100 100 100 100 92 89 90 92 93 90 84 86 78 74 73 73 69 61 52 43 35 36 52 56 48 41 47 46 37 34 33 31 31 36 36 33 25 26 28 50
100 100 100 100 100 100 100 100 99 100 98 100 100 100 100 99 99 99 94 91 89 83 77 68 66 61 54 43 48 47 32 20 14 22 36 56 58 52 52 49 41 36 33 32 33 38 40 34 29 28 32 29 37 59
100 100 100 100 100 95 90 97 99 98 98 98 95 92 89 84 76 68 60 51 41 32 26 24 17 16 26 35 39 24 18 37 44 39 44 61 64 52 41 38 34 30 34 42 43 39 35 36 40 37 33 34 64 64
100 98 99 100 100 100 100 91 83 76 70 58 48 38 32 28 25 22 19 17 16 13 11 11 17 38 31 19 17 32 47 61 64 59 52 45 44 40 36 34 35 43 44 40 40 48 48 47 47 41 42 83 71 54
100 95 94 100 94 85 82 66 53 39 31 29 26 24 27 28 27 24 22 23 19 17 23 31 26 28 30 40 60 70 70 66 53 45 38 35 33 31 37 44 43 40 38 44 49 58 66 63 49 43 68 95 81 67
100 100 100 100 96 80 59 46 37 31 25 27 29 32 30 30 30 32 31 26 26 35 37 38 41 49 62 67 66 59 51 45 40 36 35 33 31 38 41 40 38 39 50 57 62 68 74 71 61 53 60 89 88 83
93 93 97 89 73 59 48 41 37 38 35 34 34 32 33 37 37 37 30 33 54 67 65 67 68 64 56 50 44 39 36 32 31 34 41 44 42 42 43 46 52 52 55 68 75 71 71 77 76 71 62 64 64 68
99 93 78 60 53 47 47 50 47 47 43 41 38 39 46 62 65 62 55 66 79 70 60 52 46 40 37 34 31 30 32 34 39 42 44 43 43 46 56 63 61 63 68 68 72 72 69 70 78 79 64 59 66 70
64 62 52 43 45 56 65 67 66 58 50 51 66 82 87 86 80 69 60 56 52 46 44 42 39 37 33 32 33 36 40 44 44 42 49 56 52 53 61 65 66 71 79 73 73 73 74 76 90 77 57 55 69 85
98 83 67 66 75 74 69 66 58 59 68 82 89 89 84 74 63 54 45 45 46 47 53 57 51 44 40 42 47 48 52 54 53 48 62 74 70 59 59 63 78 91 86 83 82 80 81 92 98 97 87 79 83 88
47 46 64 74 73 69 65 60 64 70 78 66 59 60 59 52 46 47 50 50 50 54 68 66 58 52 52 60 57 52 56 76 74 78 88 93 93 88 82 81 86 90 96 92 85 79 82 89 93 96 97 99 99 100
61 70 82 92 90 83 72 66 65 68 70 69 58 52 54 56 60 64 65 66 64 66 72 71 65 59 51 56 61 63 77 78 75 80 91 100 97 89 91 92 87 85 84 88 96 98 98 98 99 99 98 97 100 100
88 91 89 89 86 76 65 57 56 57 56 56 60 60 62 63 60 60 61 64 65 70 73 64 60 58 60 62 65 73 73 68 66 73 86 93 91 85 79 78 77 77 83 89 89 90 93 95 95 95 96 98 99 100
100 100 95 88 80 74 78 78 70 70 68 63 56 49 54 70 77 69 62 60 60 66 76 71 58 54 61 70 81 84 82 77 74 77 83 88 92 91 93 92 91 92 93 92 92 90 90 95 96 95 96 93 80 72
75 78 79 77 69 66 61 57 54 49 53 65 73 62 46 38 36 35 36 37 40 42 46 68 75 56 53 58 65 68 72 76 75 76 76 72 70 76 83 79 80 91 94 93 92 96 99 98 98 93 75 54 49 49
90 80 66 59 54 52 45 50 60 66 61 47 39 35 36 38 41 34 30 38 46 47 49 49 62 78 66 61 65 70 71 72 70 73 82 88 91 90 78 62 56 55 63 73 79 81 75 66 56 50 49 49 48 48
64 62 57 56 65 75 78 62 52 47 41 35 35 39 41 39 38 52 95 97 92 68 55 50 50 65 86 86 79 77 81 88 90 90 91 93 87 68 50 44 44 45 48 54 56 56 56 56 56 55 54 56 68 83

GFSWCAN_500_rhum_021.txt.gz
RH
100 100 91 42 36 23 19 19 24 37 37 31 26 21 19 16 15 15 15 14 16 16 15 14 13 13 13 14 15 18 19 20 19 17 17 26 33 43 47 53 64 72 76 76 73 83 70 72 61 56 52 51 64 73
94 100 100 77 43 31 24 20 21 26 38 38 34 30 25 19 16 16 16 16 16 15 14 14 14 14 14 14 16 18 20 20 20 18 21 23 38 46 50 56 74 82 81 79 82 74 79 73 61 67 67 78 81 89
85 90 100 97 85 45 28 26 23 23 27 36 38 37 33 31 28 21 17 16 16 16 16 16 16 17 18 18 20 21 22 21 19 18 18 22 44 46 54 63 69 90 82 75 74 91 83 78 85 90 99 98 99 91
94 99 100 100 97 74 42 30 31 26 24 28 36 40 40 39 36 33 30 26 23 22 21 21 22 23 25 25 25 24 21 17 15 14 19 34 47 56 66 70 74 87 82 77 69 81 77 92 97 100 98 94 91 94
100 100 96 100 98 91 70 54 32 29 28 26 29 36 40 42 42 43 41 39 34 31 28 29 29 29 28 28 26 23 19 18 19 32 42 54 63 73 68 61 64 70 78 76 72 82 78 74 77 82 76 82 92 94
100 99 99 100 95 95 97 91 94 57 32 31 32 37 42 41 38 38 42 41 40 36 35 33 33 32 30 26 21 18 18 28 43 55 66 68 81 89 68 64 69 82 83 84 83 84 88 90 86 82 84 81 83 84
100 100 100 100 99 99 98 100 100 67 47 37 37 42 47 45 41 42 39 41 44 41 38 35 32 27 20 19 22 24 26 46 68 73 64 79 92 90 72 69 85 87 88 95 94 89 90 89 87 85 86 86 88 89
100 100 100 98 100 100 100 98 98 89 62 55 51 46 42 40 39 36 39 40 34 28 29 28 27 27 34 45 60 68 77 95 82 90 83 94 85 84 73 84 92 88 78 73 77 82 87 93 93 90 93 90 82 82
100 100 99 100 100 100 100 100 100 99 100 78 52 41 56 51 60 54 79 28 24 30 38 41 51 62 67 87 94 96 98 99 95 90 83 80 74 72 76 81 77 77 86 91 89 88 91 91 88 87 87 87 74 59
72 96 100 100 100 100 100 100 100 100 100 90 93 99 92 90 96 100 91 50 51 75 67 64 62 62 73 87 94 100 91 87 79 69 74 66 64 75 85 85 87 86 84 85 91 94 89 91 90 81 66 55 43 33
19 40 98 99 99 99 99 100 100 100 100 100 98 96 98 99 98 100 100 100 96 83 70 68 78 86 91 97 94 88 84 82 69 68 78 70 69 91 85 83 80 77 81 88 89 86 83 74 66 58 46 32 24 24
7 11 41 98 96 99 99 100 100 100 100 100 99 100 100 100 100 100 100 97 88 86 87 86 88 98 100 100 100 99 96 91 86 80 83 78 84 83 73 68 68 72 80 75 76 74 67 57 44 32 23 21 23 24
6 6 10 46 98 96 99 99 100 100 100 100 100 100 100 99 100 97 90 92 90 87 95 97 98 98 94 92 98 100 100 95 93 92 87 84 78 70 68 70 74 74 70 73 66 54 42 31 26 24 24 25 22 23
7 6 8 10 25 99 94 100 100 100 100 100 100 100 100 99 99 97 98 100 100 100 100 100 100 100 100 100 100 100 100 98 95 88 88 77 68 65 70 76 72 70 62 50 38 28 22 23 21 25 26 25 22 19
9 9 13 21 17 32 97 100 100 100 100 100 100 100 99 100 100 100 100 100 100 100 100 100 100 100 100 100 99 94 97 98 95 90 81 74 70 71 70 65 54 39 26 21 24 23 22 26 26 26 24 22 23 26
20 26 39 50 95 78 57 87 99 100 100 100 100 100 100 100 100 100 100 100 100 100 100 100 100 100 100 100 96 96 98 96 90 79 70 68 64 54 43 31 20 19 22 23 24 29 30 30 27 25 26 28 25 23
71 75 71 87 100 100 100 100 100 96 96 93 100 100 100 100 100 100 100 100 100 100 100 99 99 100 97 97 94 91 84 73 64 58 52 38 35 34 26 20 22 25 32 37 36 35 29 28 33 36 30 26 27 34
73 79 82 100 100 100 100 100 100 100 99 98 99 100 100 98 99 100 100 100 100 100 98 97 95 91 86 75 65 61 57 49 38 22 21 26 26 28 31 29 34 40 39 36 31 28 32 37 36 35 34 31 34 37
95 93 100 100 100 100 100 100 100 100 100 100 100 100 99 100 100 100 100 100 97 93 89 87 81 65 41 34 28 22 16 14 16 16 19 27 31 37 43 47 42 38 34 30 31 38 40 38 41 46 44 47 47 43
100 100 97 98 100 100 100 100 100 100 100 100 100 99 96 93 94 97 96 90 77 61 45 28 24 23 19 16 17 18 21 22 22 20 25 46 59 53 48 43 38 33 33 38 42 43 40 44 53 58 60 62 56 54
100 100 100 98 94 93 90 90 95 97 97 95 92 86 80 78 74 64 49 36 32 25 24 22 19 18 18 21 29 31 36 39 42 46 47 42 40 38 35 34 34 38 42 41 40 39 48 56 62 63 66 67 61 61
89 92 100 100 98 94 96 100 99 89 75 61 50 41 34 28 25 24 24 22 20 21 17 18 20 24 29 38 43 48 53 53 51 45 40 34 30 30 32 35 40 41 41 43 44 46 50 56 61 64 65 65 64 70
100 100 100 99 96 93 90 78 73 66 54 43 36 31 30 30 28 27 22 21 24 23 26 35 53 60 56 55 51 47 43 40 34 30 29 29 30 31 34 38 41 39 37 43 51 58 59 68 69 66 68 67 76 76
96 79 98 99 98 99 94 86 70 55 45 41 37 33 31 32 31 29 26 28 49 54 62 62 56 51 48 44 40 36 32 30 30 28 30 32 31 36 46 52 52 50 50 44 53 60 75 79 79 75 72 76 92 93
100 100 92 91 89 76 63 54 50 41 33 33 37 41 43 45 40 34 30 57 75 69 63 56 50 47 45 42 39 37 37 36 33 30 42 49 47 52 61 69 82 87 73 64 68 78 92 93 86 77 78 85 91 92
74 80 82 73 56 51 42 39 40 43 48 50 50 49 47 42 40 40 50 57 53 51 48 47 48 53 53 52 56 57 51 43 38 37 48 56 59 64 65 74 89 99 96 88 89 91 98 96 91 94 97 98 97 95
59 66 84 88 82 77 74 65 52 44 48 52 53 53 53 51 49 52 52 48 48 47 46 48 49 51 53 51 48 47 45 44 46 52 60 63 70 70 71 79 85 92 95 90 79 76 77 76 76 82 86 88 87 88
91 88 81 67 61 55 50 47 51 62 66 66 62 66 66 67 65 62 58 59 59 54 50 53 58 65 71 74 72 62 54 51 53 59 68 77 76 74 74 74 81 93 94 97 97 95 94 92 92 94 96 94 91 88
90 82 76 68 59 58 68 86 91 90 83 75 71 71 71 70 61 56 49 48 57 63 58 46 42 42 44 47 53 68 69 53 50 61 69 74 83 81 78 80 84 89 91 82 77 84 82 82 89 94 95 91 89 86
70 64 65 69 80 92 98 89 81 78 73 68 65 61 58 55 44 54 59 47 35 33 33 30 30 34 43 52 54 55 73 64 48 55 66 74 84 83 86 87 86 83 79 80 92 88 70 56 49 48 51 52 52 51
71 69 71 74 76 80 76 77 75 68 63 55 51 48 56 60 56 43 34 31 33 32 27 33 29 38 61 69 60 52 65 79 68 62 67 75 83 89 91 88 85 94 99 100 84 55 42 42 43 46 50 54 56 57
62 60 65 71 82 81 72 58 49 49 60 72 72 62 51 47 41 35 36 33 35 35 30 37 42 53 69 66 59 54 52 63 80 78 72 77 83 86 95 99 100 100 94 82 70 57 49 47 47 56 64 66 65 62
64 60 55 53 58 62 63 66 66 60 53 47 46 47 46 42 39 37 34 36 36 35 33 32 38 45 52 56 56 54 53 56 69 86 95 99 99 99 97 94 86 73 65 72 74 66 56 53 61 70 71 69 66 68

GFSWCAN_500_rhum_024.txt.gz
RH
99 100 87 32 17 17 26 30 34 39 33 29 27 22 19 17 15 14 12 12 12 11 11 11 12 13 13 13 14 14 14 16 17 18 19 19 20 19 22 24 26 31 50 61 61 73 70 66 60 62 61 62 64 66
100 100 98 56 38 22 18 21 25 29 41 36 31 26 22 18 17 17 16 16 15 15 15 14 14 14 14 14 14 14 14 16 16 19 21 20 20 20 19 18 29 53 63 69 77 83 82 77 71 68 69 65 66 69
100 99 100 100 99 43 28 20 19 21 28 40 40 31 26 23 20 18 18 18 17 16 16 16 17 17 15 15 15 16 17 18 21 23 22 22 22 20 21 29 42 70 69 74 74 81 70 66 69 69 73 80 74 65
100 99 84 100 100 98 47 31 20 19 21 26 38 40 34 31 28 24 20 19 18 17 16 16 16 15 16 16 18 20 22 25 26 25 25 22 19 21 24 34 56 91 76 80 76 76 69 70 72 69 68 65 60 67
100 96 93 98 100 100 87 42 33 24 22 22 24 37 43 41 38 35 32 31 29 25 21 20 19 20 20 21 23 26 28 30 29 26 24 20 20 27 32 33 64 94 90 83 77 73 72 67 63 60 58 61 71 80
100 100 94 89 92 100 99 86 60 35 27 25 26 29 34 44 44 46 47 46 44 42 34 32 31 30 30 32 34 35 34 31 24 22 21 22 34 47 41 48 87 100 93 85 78 71 69 70 64 64 69 68 70 82
100 100 91 96 90 100 100 96 89 54 32 28 28 28 30 31 34 38 37 43 48 48 46 41 38 38 39 39 39 37 29 23 24 28 39 64 85 88 79 83 100 86 83 80 72 70 69 67 69 67 66 75 80 82
100 100 96 86 90 92 100 100 100 95 58 41 39 36 34 34 32 32 34 42 44 42 41 33 30 37 41 38 30 31 40 51 54 72 82 86 92 100 89 100 99 98 90 78 73 73 74 74 71 73 81 80 73 67
100 100 92 93 97 100 100 100 94 99 97 100 100 97 66 38 32 39 49 52 52 48 39 32 32 36 32 31 36 66 88 88 87 84 80 84 81 85 97 96 85 73 70 73 75 73 71 70 72 75 71 64 59 50
90 100 98 96 100 100 100 100 100 100 100 100 100 100 83 67 50 60 57 51 66 72 42 36 37 32 28 36 84 100 95 96 83 74 78 72 71 78 82 79 79 83 84 80 80 76 67 67 67 63 62 54 37 20
33 88 96 100 96 100 100 100 100 100 100 100 96 95 89 97 100 93 60 68 94 69 65 65 70 69 41 54 82 99 95 90 78 67 65 51 54 90 99 89 86 89 90 86 76 68 66 62 58 54 40 22 13 14
8 41 66 90 99 100 100 100 100 100 100 99 98 99 100 100 100 96 96 99 86 82 60 63 75 92 98 100 100 100 100 95 80 73 67 58 74 96 99 96 93 88 81 74 68 63 57 54 42 25 13 12 13 15
8 9 27 36 82 99 100 100 100 100 100 100 100 100 100 100 100 100 95 82 83 76 77 81 85 99 100 96 100 100 99 90 81 73 76 88 100 99 98 95 85 82 74 67 62 56 46 29 16 13 15 17 16 17
11 8 7 14 42 79 95 100 100 100 100 100 100 100 100 100 100 98 97 100 95 100 100 90 89 100 100 100 100 100 100 100 93 88 99 100 96 98 96 88 84 73 65 58 47 31 15 10 11 16 19 19 20 22
12 10 8 7 13 39 66 97 100 100 100 100 100 100 100 100 100 100 100 100 100 100 100 100 100 100 100 100 100 100 100 100 99 100 95 92 92 91 90 80 68 59 48 30 14 11 11 13 15 18 22 23 22 24
11 10 9 8 6 9 20 48 100 100 100 100 100 100 100 100 100 100 100 100 100 100 100 100 100 100 100 100 100 100 100 100 98 97 94 96 98 85 75 64 47 26 13 10 10 12 15 19 20 23 24 24 27 30
11 11 10 10 8 11 26 74 53 97 96 100 100 100 100 100 100 100 100 100 100 100 100 100 100 100 100 100 100 100 98 93 93 98 93 88 64 53 39 19 13 12 12 12 19 24 23 24 26 26 27 33 33 33
17 18 14 12 14 22 43 60 73 71 91 100 100 100 100 100 100 100 100 100 100 100 100 100 100 100 100 100 96 90 85 82 83 82 65 42 22 15 14 14 14 17 23 27 29 28 26 25 27 33 35 34 35 43
100 87 56 40 50 71 100 100 100 100 100 100 100 100 100 100 100 100 100 100 100 100 100 100 100 100 99 93 90 89 83 76 58 37 21 16 15 15 15 19 23 30 31 32 30 25 25 29 37 37 36 39 44 54
87 80 79 85 95 100 100 100 100 100 98 100 100 100 100 100 100 100 99 99 99 98 99 100 99 92 91 89 78 58 45 32 23 17 15 18 23 26 32 37 38 34 30 26 27 28 30 36 39 39 45 49 51 55
100 100 100 100 100 100 100 100 100 100 100 100 100 100 100 96 93 91 86 83 85 85 69 63 50 35 28 22 20 18 19 19 18 19 22 30 40 40 37 32 28 26 27 28 29 32 38 38 44 49 52 55 70 65
66 92 95 100 100 100 100 100 100 99 96 98 98 98 93 84 73 61 49 43 34 29 26 23 22 21 20 21 21 23 26 26 31 38 41 40 33 29 27 27 26 26 29 34 37 40 42 48 49 50 54 76 84 75
93 100 100 100 99 96 97 83 84 96 96 93 85 71 55 45 38 33 29 27 28 25 24 24 24 24 26 36 42 44 43 45 44 39 33 30 30 30 30 30 31 36 40 43 49 55 63 66 62 64 77 90 85 76
100 100 89 76 51 69 76 90 99 92 79 56 42 36 32 34 33 30 28 34 34 31 32 32 34 41 49 55 54 51 46 41 39 37 36 34 32 32 36 37 40 50 50 54 60 71 82 86 84 85 91 97 91 85
100 100 100 100 100 100 97 96 91 82 62 44 36 30 33 34 31 30 33 39 38 44 48 50 51 49 46 45 46 45 43 40 41 38 38 39 36 38 42 46 56 66 62 63 69 78 84 91 94 93 86 82 79 76
99 100 95 91 100 97 80 70 64 59 45 33 32 34 35 32 30 32 38 44 46 47 46 46 46 43 39 38 36 37 38 37 39 42 47 52 52 47 45 48 60 69 74 75 74 76 80 87 90 97 100 99 98 100
100 100 100 89 73 64 54 46 35 36 38 38 43 42 37 36 40 43 40 41 43 44 43 40 38 36 33 34 42 48 50 49 48 51 55 62 65 64 55 51 59 71 74 74 70 69 75 82 89 93 86 86 89 85
100 87 59 45 37 37 45 53 54 53 52 48 45 47 50 55 56 50 49 50 51 50 49 44 39 47 50 43 31 29 31 35 41 47 52 48 54 68 67 56 60 69 79 87 89 87 86 86 87 82 84 91 76 54
82 87 84 78 70 70 71 66 63 59 57 57 65 76 74 68 64 59 57 55 50 42 40 50 54 43 33 30 29 23 22 16 25 67 78 62 53 68 76 63 68 77 92 98 93 87 89 86 83 88 94 82 56 42
78 70 71 73 70 64 63 59 60 65 73 81 83 81 77 64 56 52 48 43 43 51 54 47 36 32 30 30 30 25 22 21 40 69 70 60 62 87 87 82 88 92 92 94 97 97 94 95 96 99 90 76 62 53
53 52 56 63 69 65 61 62 67 74 81 84 82 72 58 47 45 52 60 59 55 50 44 37 31 29 28 27 26 26 27 33 43 55 57 57 59 82 98 98 97 100 100 100 100 100 100 100 99 78 63 68 72 64
82 86 84 79 71 66 62 60 62 63 62 60 58 64 72 70 59 50 47 45 44 42 38 34 30 28 28 26 25 24 26 36 48 54 55 56 57 60 76 99 100 100 100 100 100 100 100 92 84 78 78 81 81 67
65 62 57 55 55 53 49 46 46 50 60 72 76 76 72 63 53 47 44 42 40 38 35 31 28 27 25 24 23 22 21 21 27 43 58 66 72 78 91 100 100 100 100 100 100 99 94 86 83 86 88 83 78 77

GFSWCAN_500_rhum_027.txt.gz
RH
100 100 94 23 23 24 21 34 50 51 49 45 39 28 23 19 17 15 13 13 14 14 17 16 15 15 15 15 15 15 14 14 15 15 15 16 16 18 20 20 20 21 21 24 28 41 59 63 58 57 62 64 63 61
100 100 83 22 23 26 22 30 44 48 44 42 39 35 28 23 19 16 14 14 14 14 14 15 15 15 15 14 15 14 14 14 14 15 15 15 16 18 21 22 22 22 28 30 39 57 74 77 73 67 72 65 63 61
100 100 98 65 22 24 25 26 34 44 49 44 38 36 32 29 24 21 16 14 13 12 12 12 12 13 13 13 13 15 15 15 15 15 16 17 20 23 24 23 24 30 30 30 38 81 80 74 77 70 72 69 63 61
100 100 100 93 81 21 18 21 30 35 39 44 43 37 33 32 29 24 22 20 17 16 14 14 15 16 16 16 17 18 17 16 16 17 18 20 25 26 26 26 24 33 36 53 51 74 78 81 82 78 71 64 61 59
100 100 100 98 98 80 32 19 20 25 29 28 35 43 42 36 34 30 26 23 21 20 16 17 17 18 18 18 18 17 17 18 20 21 23 28 29 29 28 26 26 62 86 85 79 87 86 84 82 77 69 61 59 62
100 100 99 100 100 98 72 65 54 23 20 20 21 26 37 44 45 43 36 29 28 24 20 18 18 18 19 19 19 22 23 24 28 29 31 33 33 27 26 28 69 98 98 84 87 86 90 84 72 71 66 67 68 68
100 100 100 94 98 100 100 100 96 55 35 26 22 20 21 27 39 45 41 47 46 41 34 29 27 28 30 31 34 34 36 36 38 37 36 35 28 31 39 57 95 94 87 82 90 87 73 68 70 70 70 71 70 66
100 100 100 100 99 95 100 100 100 100 85 42 32 24 21 20 23 28 36 46 53 49 45 34 28 36 44 42 43 44 44 44 41 38 33 32 43 65 63 83 94 84 81 78 75 73 68 62 60 66 71 71 68 66
100 100 100 100 100 98 100 100 99 100 100 90 69 63 50 28 21 30 32 33 37 37 28 22 24 27 31 39 44 46 45 43 37 32 32 44 61 82 90 92 88 76 70 67 69 64 64 69 74 77 77 74 67 57
96 100 100 100 100 100 100 100 100 100 100 100 100 92 58 34 29 39 38 35 31 32 22 18 25 30 39 51 55 61 61 53 34 30 43 57 66 87 100 99 98 83 72 74 73 73 78 82 84 82 76 67 55 42
57 63 99 100 97 100 100 99 100 100 100 100 98 97 92 88 87 100 98 83 60 34 32 36 32 35 47 61 86 94 93 94 71 39 46 53 69 100 100 98 85 77 79 82 86 82 88 93 88 77 64 52 32 11
18 19 51 81 99 100 98 95 98 100 100 100 100 98 99 100 100 100 98 90 80 76 61 57 55 48 59 94 99 98 100 100 91 83 82 72 78 94 89 80 80 83 84 93 93 93 95 90 77 63 45 21 10 10
6 8 20 24 66 100 100 93 94 100 100 100 100 100 100 100 100 100 84 73 75 67 58 66 68 68 86 92 100 100 100 97 90 90 86 85 90 84 78 84 92 99 98 95 95 95 88 78 61 32 12 10 10 12
9 7 7 14 14 42 95 100 92 100 100 100 100 100 100 100 100 98 80 73 74 78 78 82 100 100 100 100 100 100 100 99 94 84 86 99 94 95 98 100 100 100 98 96 92 86 75 46 19 12 12 13 14 15
11 11 8 7 7 6 19 78 94 100 100 100 100 100 100 100 100 100 100 100 100 100 100 99 100 100 100 100 100 100 100 99 94 100 100 100 100 100 100 100 99 94 89 86 78 54 24 13 12 11 14 17 19 19
8 9 11 12 8 8 13 33 43 67 100 100 100 100 100 100 100 100 100 100 100 100 100 100 100 100 100 100 100 100 100 100 100 100 100 100 100 100 99 93 90 86 78 58 30 18 14 12 12 14 18 20 20 21
10 9 10 12 11 9 8 14 26 43 76 100 100 100 100 100 100 100 100 100 100 100 100 100 100 100 100 100 100 100 100 100 100 100 100 100 98 96 94 87 76 56 34 22 16 14 13 15 18 20 19 21 22 23
15 14 13 12 12 11 9 9 21 28 41 83 100 100 100 100 100 100 100 100 100 100 100 100 100 100 100 100 100 100 100 100 100 100 100 99 96 90 82 65 48 30 18 15 15 17 21 23 22 21 21 23 25 30
11 11 11 11 11 11 12 13 30 68 67 78 98 100 100 100 100 100 100 100 100 100 100 100 100 100 98 98 100 100 99 99 98 94 91 85 73 57 40 25 18 16 16 19 23 26 24 22 22 22 22 25 31 37
10 13 12 13 13 13 14 16 39 64 91 99 100 100 100 100 99 100 100 100 99 99 100 100 96 94 97 97 97 94 90 86 79 66 46 37 28 18 17 17 18 22 27 28 25 24 24 24 27 28 30 36 40 40
16 30 45 48 56 46 38 69 83 78 100 100 100 100 100 100 98 97 99 99 97 100 95 94 93 92 88 81 73 59 42 33 26 23 20 19 19 20 23 28 28 27 26 25 26 28 28 30 34 36 43 51 55 54
100 100 97 75 96 93 75 100 98 98 89 100 100 100 99 98 96 90 84 80 71 65 67 52 42 34 28 28 26 24 23 22 21 20 20 21 26 29 27 25 24 25 25 29 32 32 35 45 46 48 62 73 76 78
99 90 91 100 100 100 100 94 100 100 99 95 90 90 90 88 75 65 54 42 36 32 30 27 24 23 23 23 24 23 23 23 28 30 30 30 29 28 27 27 29 28 29 35 40 39 43 51 52 58 75 82 84 83
100 99 94 95 96 100 95 100 99 92 94 94 98 99 78 51 38 34 28 30 28 28 27 27 28 27 27 27 30 32 34 34 32 30 30 31 30 28 30 34 42 43 43 47 47 40 41 54 59 64 69 74 77 80
98 100 100 92 88 68 72 77 79 79 98 99 78 42 36 34 29 27 30 33 30 27 26 26 27 28 32 36 38 40 38 34 34 31 30 41 47 46 42 38 39 46 51 58 67 54 45 56 67 72 69 65 69 74
100 100 99 84 99 100 100 100 100 92 86 76 65 58 50 38 34 33 34 34 34 34 33 34 37 40 43 41 38 37 36 33 34 39 38 32 27 26 24 27 43 53 51 53 74 69 50 62 74 77 73 68 72 77
100 94 78 88 88 93 90 84 76 69 66 56 43 34 31 31 32 35 41 40 39 40 44 46 46 42 37 34 33 31 35 44 40 30 26 25 22 18 17 17 42 73 68 60 69 74 61 71 82 92 93 89 87 87
86 99 99 100 100 100 95 76 49 35 32 30 30 37 40 42 47 47 43 42 47 52 52 47 39 37 35 32 32 43 46 41 33 29 26 22 18 17 15 22 76 94 75 68 76 77 71 82 100 100 99 98 99 95
90 89 96 100 95 75 54 45 42 42 48 48 50 56 54 50 45 45 51 62 63 59 53 47 41 37 35 41 49 48 43 35 28 25 24 22 20 20 22 30 52 68 68 77 95 91 88 95 100 100 100 100 100 97
94 85 76 70 65 62 63 60 59 58 56 53 49 46 45 46 52 57 62 65 61 52 45 44 47 50 52 51 47 44 39 32 25 23 22 22 21 22 27 38 49 56 62 90 100 100 100 100 100 100 100 100 100 99
63 62 64 65 65 59 53 48 45 45 52 58 59 58 56 56 55 56 53 50 50 55 60 58 52 47 44 42 40 36 31 26 23 22 21 21 20 20 23 38 48 54 61 65 82 100 100 100 100 100 100 100 100 93
64 62 59 55 54 55 56 63 68 68 69 64 60 59 58 51 48 50 68 70 68 64 55 46 41 39 36 35 31 27 24 22 21 20 18 16 16 16 18 23 38 57 71 83 96 100 100 100 100 100 100 100 95 84
56 56 57 58 58 58 60 58 51 42 42 44 44 44 44 47 50 63 62 54 46 44 43 41 38 34 31 27 25 22 19 18 16 16 16 16 16 17 18 20 26 42 81 100 100 100 100 100 100 100 100 98 93 89

GFSWCAN_500_rhum_030.txt.gz
RH
100 99 100 83 32 28 24 37 70 76 75 84 58 38 28 23 17 13 9 7 5 5 7 7 9 11 15 14 13 14 14 15 16 16 15 15 15 15 16 16 16 17 20 22 23 23 25 26 25 26 48 72 73 74
99 98 100 93 48 29 28 28 53 62 71 73 64 51 34 26 23 19 15 13 12 9 9 11 13 15 16 15 15 17 17 18 16 16 15 15 15 15 16 16 18 20 23 23 24 26 30 31 33 63 79 84 81 82
100 98 100 83 77 32 28 28 41 56 57 62 59 53 46 36 28 23 22 18 15 15 15 12 16 21 20 17 16 16 16 16 16 15 15 15 16 16 16 16 21 25 26 26 27 31 40 45 62 76 86 84 75 62
100 100 100 99 89 34 31 31 34 54 59 56 57 54 50 45 37 30 27 22 18 18 16 18 17 17 18 18 17 15 15 14 14 15 16 17 17 16 16 20 23 28 29 28 29 41 63 60 76 81 79 74 69 72
100 100 100 100 100 90 32 32 34 45 59 58 56 52 48 45 42 39 33 28 23 20 17 17 16 16 14 14 13 14 14 15 16 17 18 18 16 19 19 20 28 32 29 30 38 50 69 72 73 72 71 69 66 55
100 100 99 100 90 27 24 30 31 32 41 55 58 56 52 48 44 39 34 31 30 27 22 19 20 18 17 18 19 20 18 20 22 19 17 18 22 26 26 28 36 32 38 50 74 69 75 67 62 63 62 60 54 54
100 100 100 98 92 56 39 29 25 28 30 36 42 44 44 45 48 42 36 42 38 31 26 22 19 20 20 20 21 22 23 25 24 23 24 30 36 37 33 35 37 43 48 74 80 88 77 77 75 70 67 64 62 65
100 100 100 100 100 100 100 97 38 22 22 23 27 29 29 29 29 33 41 47 44 37 32 22 18 26 36 33 38 39 40 41 36 36 34 42 42 40 28 35 36 52 79 83 89 95 93 94 83 72 64 65 74 82
100 100 100 100 100 100 100 100 91 41 34 52 39 29 24 22 20 23 28 31 34 34 30 23 25 31 34 41 47 48 49 48 40 36 36 38 32 33 39 37 38 49 70 84 92 100 99 87 79 78 80 81 83 86
100 100 100 100 100 100 100 100 100 100 100 100 100 88 66 48 39 35 26 23 21 19 15 14 18 20 27 34 39 42 44 45 36 33 46 39 31 59 94 81 58 58 83 99 100 99 92 79 78 81 86 90 93 92
84 100 100 100 100 100 100 100 100 100 100 99 97 93 91 93 81 64 63 66 57 43 28 19 18 21 26 32 44 51 40 45 43 38 54 45 41 61 97 100 100 100 93 90 87 82 77 82 92 94 100 100 94 82
26 56 94 100 100 100 100 100 100 100 100 100 98 100 100 100 100 99 85 77 69 64 52 45 54 89 95 91 73 83 84 65 53 53 70 64 70 80 83 83 86 88 89 89 87 89 96 99 100 100 100 91 79 52
12 13 18 62 92 99 100 100 100 100 100 100 100 100 100 100 100 92 78 74 64 57 59 72 84 97 100 100 100 100 99 94 84 78 88 79 76 91 90 88 86 84 85 87 96 100 100 100 100 96 86 67 41 23
8 9 15 20 39 65 83 93 98 100 100 100 100 100 100 99 96 93 69 63 62 71 81 86 88 90 93 100 100 100 100 99 98 92 87 96 100 98 92 94 92 92 100 100 100 100 100 100 94 81 57 38 25 17
9 8 7 6 16 34 49 58 54 85 100 100 100 100 100 100 100 98 98 95 87 87 86 83 85 95 98 100 100 100 100 100 98 100 100 97 98 100 100 100 100 100 99 100 100 100 98 95 80 54 30 21 16 15
10 11 10 8 7 7 11 24 34 32 77 97 100 100 100 100 100 100 100 100 99 100 99 99 100 100 100 100 100 100 100 100 100 100 100 100 100 100 100 100 100 100 100 100 99 95 82 54 32 21 16 17 18 19
9 8 8 8 10 10 8 7 9 15 15 40 96 100 100 100 100 100 100 100 100 100 100 100 100 100 100 100 100 100 100 100 100 100 100 100 100 100 100 100 100 100 99 92 75 47 29 22 18 17 18 18 19 20
12 10 9 8 8 8 10 11 8 7 10 15 24 52 89 100 100 100 100 100 100 100 100 100 99 100 100 100 100 100 100 100 100 100 100 100 100 100 100 99 96 88 70 45 29 22 19 18 19 21 20 21 21 23
14 13 11 10 9 9 9 10 12 11 9 9 14 25 44 77 100 100 100 100 100 100 100 100 100 100 100 100 100 100 100 100 100 100 100 100 98 95 90 76 55 37 27 22 20 19 20 22 22 22 22 21 21 25
16 15 13 12 12 13 13 12 12 12 12 24 30 32 28 31 55 74 94 100 100 100 100 100 100 100 100 100 100 100 100 99 97 96 92 82 72 56 38 26 22 20 19 20 20 20 21 21 23 23 23 27 29 38
16 14 12 12 11 12 12 12 13 13 14 20 43 97 100 100 100 97 94 91 83 97 97 98 97 97 96 94 94 94 88 80 64 52 39 29 24 22 19 19 19 18 18 20 19 19 21 28 34 37 36 36 34 42
8 8 30 14 12 13 15 22 30 28 29 46 38 57 79 95 100 100 100 93 89 80 72 67 62 56 54 52 43 33 29 25 23 21 20 19 19 20 21 20 20 20 19 19 26 32 31 31 35 42 52 51 40 46
13 17 28 37 51 66 65 56 47 54 57 78 78 92 100 100 100 95 85 74 67 58 43 35 31 28 25 23 22 20 19 18 20 20 21 22 24 27 26 24 23 23 31 35 31 25 24 27 38 37 49 65 52 50
18 22 65 99 100 84 83 100 98 90 100 100 100 100 94 87 85 78 63 48 41 28 24 23 26 25 26 26 24 24 24 25 27 29 32 32 30 27 27 26 34 38 32 25 23 21 22 44 100 95 78 80 64 59
100 100 100 100 91 73 100 100 100 100 100 100 90 89 100 100 75 43 34 24 28 27 26 24 26 31 32 30 32 31 31 34 35 37 39 40 34 26 28 39 34 26 25 21 18 16 19 46 100 90 80 90 76 71
100 100 100 81 73 82 100 100 100 98 100 83 82 100 100 96 72 40 28 32 27 25 26 32 38 40 39 38 37 43 47 49 47 42 38 33 32 41 41 33 26 23 22 18 16 16 19 33 68 73 74 90 89 85
100 90 69 75 97 100 100 100 100 100 97 97 91 68 45 37 32 27 34 26 29 33 39 44 46 45 45 47 52 52 48 43 39 33 31 36 46 46 41 34 27 22 20 18 18 20 25 41 64 69 85 95 95 93
76 96 100 100 100 97 92 94 100 98 83 72 55 42 33 29 31 36 35 38 44 45 45 42 42 44 44 44 41 41 40 38 40 43 51 49 47 44 40 33 27 23 22 21 20 21 34 49 57 66 88 99 100 100
100 100 98 94 98 86 86 100 100 100 88 70 49 39 38 38 42 52 52 44 38 38 43 46 46 46 45 45 43 40 44 52 50 46 44 42 42 39 34 28 24 22 21 20 20 21 34 52 59 71 94 100 100 100
100 100 100 87 76 81 92 92 89 80 65 56 53 52 53 53 47 40 40 47 52 54 54 54 50 46 47 52 59 62 57 52 44 39 36 35 32 29 25 22 19 18 17 16 16 18 23 42 59 65 82 100 100 100
100 100 100 88 71 57 49 53 56 64 68 68 61 52 46 46 47 56 59 56 56 56 52 48 43 49 63 63 54 46 43 40 37 33 29 26 23 20 18 17 16 16 16 16 17 18 22 34 58 89 100 100 100 100
51 53 56 58 63 66 62 63 62 60 56 53 46 51 52 52 48 41 41 38 37 42 46 48 49 56 55 48 40 36 32 29 27 25 22 19 18 17 16 15 14 15 16 19 22 25 30 52 87 100 100 100 100 100
60 58 55 53 50 50 50 48 46 46 45 44 41 40 38 38 36 42 44 50 57 60 60 59 54 47 38 33 30 29 28 24 21 20 19 17 15 14 15 16 16 17 18 20 24 27 38 66 100 100 100 100 100 100

GFSWCAN_500_rhum_033.txt.gz
RH
100 100 100 69 33 38 75 90 97 90 90 69 50 38 22 14 10 6 5 5 5 4 4 4 5 5 4 4 10 12 14 16 15 15 14 14 14 15 16 15 16 16 16 16 17 18 19 21 21 26 30 29 43 60
99 100 99 55 37 26 40 72 92 96 94 91 69 48 38 27 14 10 7 6 5 5 5 4 5 5 4 4 8 13 15 20 18 17 16 17 17 17 16 16 16 16 18 18 20 22 23 24 26 28 31 51 61 60
100 99 88 43 36 32 30 43 75 89 94 98 88 67 47 34 28 22 14 10 8 6 5 5 5 6 5 5 8 12 16 17 17 19 19 18 17 17 17 17 19 19 20 18 20 24 27 31 29 29 35 59 68 60
100 100 100 99 85 38 37 49 54 71 85 92 95 95 63 48 36 31 24 20 14 12 9 9 7 8 8 9 11 17 19 18 19 21 20 19 19 16 16 17 17 22 25 28 27 32 33 32 33 43 64 77 70 65
100 100 100 100 99 90 41 36 39 53 71 78 80 82 91 66 53 39 29 25 21 18 16 16 14 15 15 15 16 19 23 23 21 20 18 16 14 15 16 17 20 32 31 30 34 38 36 37 45 65 81 86 82 85
98 100 100 100 100 94 58 40 35 38 54 72 72 69 69 73 59 50 41 31 31 26 21 18 22 20 18 19 19 20 20 18 15 14 14 15 18 20 16 17 28 39 38 41 42 39 34 35 52 73 88 93 94 100
100 99 100 100 100 98 97 74 41 41 44 53 70 68 63 58 53 49 45 45 40 37 30 23 21 22 21 21 21 24 25 24 22 20 18 22 25 21 20 23 48 47 39 41 39 35 35 40 58 62 71 93 100 97
100 100 99 100 100 100 98 87 56 38 36 40 54 69 71 64 53 50 51 49 43 36 32 23 23 28 32 30 30 33 33 32 26 28 24 35 38 38 29 44 40 47 56 63 70 75 68 56 57 78 97 96 92 91
100 100 100 100 100 100 100 82 66 39 33 33 33 38 52 54 54 54 49 43 42 38 31 25 27 30 31 36 42 45 46 45 38 34 39 36 29 30 40 41 50 51 63 67 73 82 91 99 100 100 100 98 96 94
100 100 100 100 100 100 100 77 54 68 46 28 28 28 29 36 45 39 34 27 22 21 19 20 23 25 37 41 44 49 42 39 31 28 32 26 20 30 50 58 63 77 83 84 88 91 96 100 100 100 98 94 93 90
100 100 100 100 99 100 98 83 99 100 97 61 36 25 23 34 36 35 28 24 21 18 17 17 18 24 33 39 41 41 30 29 26 29 44 27 22 52 66 61 61 90 94 89 99 100 100 99 98 98 99 96 93 99
99 100 100 100 100 100 100 100 100 100 98 98 94 70 70 90 99 96 78 70 65 62 49 44 69 82 81 84 74 71 92 93 80 71 74 64 64 66 69 74 81 96 90 91 94 96 100 99 100 100 100 99 100 100
69 91 100 100 100 100 100 99 100 100 100 100 100 100 100 100 99 82 76 70 72 70 68 76 88 98 100 100 100 100 99 92 93 88 80 78 82 85 84 88 94 88 84 83 90 99 100 100 100 100 100 100 100 95
6 11 43 88 100 100 100 100 100 100 100 100 100 100 100 100 93 71 62 64 69 72 75 79 87 95 100 100 100 100 100 98 98 89 81 89 86 80 78 75 78 87 94 100 100 100 100 100 100 100 100 98 91 74
8 6 5 10 29 66 80 98 100 100 100 100 100 100 100 100 98 86 79 74 72 71 73 75 79 87 96 100 100 100 100 100 100 98 95 90 85 82 79 84 91 97 100 100 100 100 100 100 100 100 97 76 44 26
10 9 9 6 6 8 19 38 54 61 96 99 100 100 100 100 100 100 100 97 88 80 79 85 89 98 98 100 100 100 100 100 99 98 99 99 93 94 98 99 100 100 100 100 100 100 100 99 94 78 43 26 21 18
10 11 10 9 8 7 6 8 10 18 18 32 53 60 72 98 100 100 100 99 100 100 100 99 99 100 100 100 100 100 100 100 100 100 100 100 100 100 100 100 100 100 100 100 100 99 95 68 36 25 20 17 15 16
10 9 9 8 8 8 8 8 8 7 7 10 16 24 34 37 58 91 99 100 100 100 100 100 100 100 100 100 100 100 100 100 100 100 100 100 100 100 100 100 100 100 100 98 82 50 30 24 18 15 16 15 16 20
12 12 11 11 10 10 8 8 7 7 8 9 8 8 9 15 21 28 36 54 75 94 100 100 100 100 100 100 100 100 100 100 100 100 100 100 100 100 100 99 96 88 67 42 28 21 17 16 16 16 16 18 24 22
17 15 14 14 13 13 12 10 9 8 8 8 8 10 10 9 10 12 16 20 28 55 84 91 93 97 100 100 99 100 100 100 100 100 100 99 97 92 76 57 40 26 20 17 17 17 16 18 18 22 25 21 19 17
20 19 18 18 17 16 14 13 11 10 9 10 11 12 14 14 21 41 62 81 77 78 62 53 59 75 82 84 94 97 91 90 87 78 66 47 31 23 20 18 17 16 16 17 20 20 19 18 25 26 21 21 20 22
19 19 18 17 15 14 13 11 11 11 12 12 12 13 14 15 20 44 71 82 81 73 78 78 73 66 59 50 42 36 32 28 24 21 19 17 17 17 19 22 22 23 25 26 26 23 22 33 30 25 22 20 18 19
14 15 16 15 14 13 14 15 12 13 13 14 14 18 28 60 78 89 95 100 97 87 78 65 51 40 28 19 15 14 18 23 24 24 24 24 25 26 26 29 31 31 29 28 27 30 39 37 29 24 21 18 17 18
13 12 11 12 49 62 42 44 37 50 50 43 43 52 71 83 96 100 100 92 79 63 50 40 26 19 19 18 19 20 23 27 29 29 29 29 29 31 40 43 42 39 34 29 29 41 41 33 27 23 20 18 16 18
12 40 15 19 50 65 62 72 86 96 91 98 100 100 100 100 100 98 91 84 68 50 35 27 22 22 23 23 23 28 30 30 34 34 39 45 43 42 44 41 37 32 30 32 45 46 42 36 29 23 20 19 19 27
53 85 53 37 65 66 99 100 96 100 100 99 100 100 100 98 96 95 99 100 90 63 43 32 28 29 29 30 36 30 31 36 42 47 52 52 47 43 36 33 32 38 45 46 46 44 40 34 28 23 21 20 23 34
100 100 100 90 93 100 100 100 100 100 100 96 91 84 75 69 70 78 66 46 32 29 31 31 31 37 42 42 36 34 38 45 47 48 45 39 37 38 42 49 50 45 43 41 38 36 32 28 23 21 19 20 22 36
100 94 93 92 89 100 100 100 100 100 96 87 83 90 88 85 76 56 42 38 36 35 36 41 48 45 40 36 36 40 46 50 45 40 49 56 57 53 49 45 40 36 34 32 30 28 24 20 18 17 17 18 19 28
87 100 100 100 100 99 91 99 100 97 85 86 96 97 96 93 84 70 55 48 45 45 46 48 44 41 41 39 40 39 42 44 40 40 50 56 54 46 40 36 33 30 27 24 21 19 18 17 17 17 17 19 22 27
100 100 100 100 100 100 98 93 90 94 100 100 99 93 85 72 61 52 55 61 64 59 52 49 48 48 43 38 34 33 33 39 39 43 49 47 37 30 27 26 24 21 19 18 17 15 15 16 18 19 22 27 33 49
98 99 97 96 100 100 100 96 79 58 44 39 41 40 49 60 59 62 60 58 55 52 48 44 39 35 34 34 38 52 58 57 53 46 36 28 26 25 22 20 19 18 15 14 14 15 16 18 22 24 28 33 44 91
63 61 59 53 52 58 62 66 67 66 66 58 49 49 49 48 48 46 44 42 40 38 36 36 38 44 51 55 55 53 47 37 30 28 27 25 22 21 20 18 16 15 15 16 16 16 18 16 16 17 23 32 68 100
65 65 61 61 60 57 50 47 43 41 40 38 36 35 35 36 38 47 50 51 55 57 58 55 51 46 39 34 31 30 29 28 26 24 23 22 21 19 18 17 17 21 22 22 22 16 13 14 15 17 21 40 98 100

GFSWCAN_500_rhum_036.txt.gz
RH
92 100 100 98 91 100 100 100 100 90 65 42 74 91 36 14 8 7 7 6 6 8 11 9 7 6 7 7 5 6 6 8 13 15 16 15 17 14 12 13 15 16 17 17 17 18 18 20 19 21 25 30 33 32
98 100 100 97 97 100 100 100 100 99 76 60 38 55 65 35 14 8 7 6 6 8 8 8 7 6 5 5 5 5 5 6 9 14 17 19 18 15 16 16 18 18 19 18 19 20 20 19 20 22 28 32 32 32
99 100 99 86 80 100 100 100 100 99 93 68 58 43 36 41 38 25 10 7 6 7 7 7 6 5 4 4 5 5 5 6 9 15 20 23 23 23 22 21 20 20 20 19 19 21 22 24 33 28 28 33 31 28
100 100 99 86 63 100 100 100 100 99 99 94 70 60 48 35 23 14 12 9 8 7 6 7 5 4 4 4 4 6 7 9 12 16 20 24 24 23 24 22 21 23 20 20 18 22 23 31 32 32 36 33 30 33
100 100 100 99 72 99 100 100 100 100 100 98 97 78 71 54 40 32 24 18 14 12 10 9 6 6 5 5 5 5 7 12 17 24 31 33 31 26 21 19 18 28 28 26 24 31 33 37 37 37 37 41 47 51
98 96 100 100 68 54 83 100 100 100 100 98 99 100 88 76 58 50 37 31 28 22 18 14 14 11 9 12 15 18 20 22 22 23 23 22 21 18 15 13 26 30 30 37 38 45 44 41 45 50 57 69 79 86
100 100 100 95 64 45 45 87 85 97 100 100 100 97 90 89 92 76 58 56 43 33 28 23 20 19 17 21 26 28 27 25 21 20 19 22 23 20 16 19 41 37 42 47 46 42 40 43 48 62 70 82 92 96
100 100 100 100 100 95 72 49 60 81 89 95 100 99 91 80 75 75 78 71 57 45 38 28 25 32 34 35 38 38 36 33 29 28 26 30 27 27 23 44 43 41 39 37 37 45 51 57 69 81 91 94 98 98
100 100 100 100 100 100 100 99 62 51 57 78 86 81 75 71 67 70 68 60 55 53 44 35 31 32 34 45 50 54 55 46 37 34 36 37 35 35 44 37 34 33 33 32 40 58 64 68 93 95 100 100 100 100
100 100 100 98 96 100 100 100 98 64 54 51 49 48 53 71 80 74 69 57 48 40 35 33 36 37 45 50 52 53 48 42 36 32 33 27 22 25 36 46 67 62 53 72 78 77 76 79 92 96 98 96 95 94
100 100 100 100 100 100 100 100 100 99 97 83 54 42 44 50 52 48 40 33 35 34 30 29 29 29 30 31 36 36 29 34 26 26 30 22 21 52 77 77 76 83 88 90 92 96 100 99 100 100 100 97 97 99
100 100 100 100 88 97 100 100 100 88 86 67 53 47 39 40 40 34 22 20 20 19 18 22 33 58 77 91 83 74 84 83 78 73 71 58 60 67 71 77 82 83 82 89 89 82 77 76 80 92 99 100 100 100
100 100 100 100 94 94 98 100 100 90 84 86 100 100 99 60 33 31 26 24 45 73 81 92 100 100 100 100 100 100 99 91 95 87 79 75 76 72 72 80 80 75 76 72 69 66 69 79 96 100 100 100 100 100
74 98 100 100 100 100 97 100 100 100 100 100 100 100 100 90 78 79 78 82 79 76 85 97 100 100 100 100 100 100 100 98 92 83 76 78 75 73 77 77 74 70 69 70 74 84 98 100 100 100 100 100 100 100
42 74 86 96 100 100 100 100 100 100 100 100 100 100 92 88 85 77 72 70 72 76 76 80 86 93 97 100 100 100 100 100 94 82 79 77 76 74 70 68 68 72 83 94 100 100 100 100 100 100 100 100 98 81
7 10 25 34 42 84 97 100 100 100 100 100 100 99 100 100 100 97 96 95 88 86 85 84 80 77 79 85 87 96 100 97 97 98 96 89 87 87 85 87 96 100 100 99 100 100 100 100 100 100 99 85 63 35
12 10 9 7 6 9 18 27 61 82 94 100 100 100 100 100 100 100 99 100 100 100 100 100 100 100 100 100 100 100 100 100 100 99 99 100 100 100 100 100 99 100 100 100 100 100 100 100 97 87 60 27 17 15
11 10 10 10 9 8 7 7 7 11 21 35 60 82 91 95 86 77 86 96 96 95 99 100 100 100 100 100 100 100 100 100 100 100 100 100 100 100 100 100 100 100 100 100 100 99 91 64 33 19 17 16 17 18
10 9 9 8 8 8 8 7 7 7 7 7 7 8 10 15 30 54 55 41 46 55 62 64 72 79 82 93 100 100 100 100 100 100 100 100 100 100 100 100 100 99 96 84 59 35 22 17 18 18 18 20 21 20
16 16 12 11 10 10 10 10 10 9 8 8 7 7 7 6 7 8 8 8 8 8 10 13 16 23 34 48 62 68 78 87 99 100 100 100 99 96 85 68 44 28 21 19 18 20 21 21 24 25 25 24 23 30
14 15 15 15 16 15 14 13 13 12 10 10 9 8 8 8 7 8 8 10 11 12 13 21 38 50 44 41 41 50 72 73 58 46 40 35 35 29 22 18 17 17 17 18 19 20 26 26 26 28 27 25 31 41
15 15 17 17 18 18 18 17 16 14 11 10 9 9 8 9 10 11 12 12 13 13 17 35 53 58 65 65 72 67 56 43 34 26 18 15 14 14 14 17 20 22 24 25 26 25 26 30 31 30 27 28 40 46
15 15 15 16 15 13 13 12 12 11 11 10 10 10 10 10 12 15 16 24 31 74 94 100 100 85 78 67 48 28 21 18 18 18 19 18 18 18 19 20 22 24 27 31 35 37 37 34 32 32 33 38 45 46
12 12 12 12 12 12 11 12 12 12 13 15 17 16 16 17 21 28 42 56 79 100 100 100 89 71 59 42 27 21 20 20 22 24 24 24 23 24 27 29 33 38 41 40 38 36 36 37 43 44 44 45 44 40
14 14 13 14 14 13 13 12 14 28 50 42 36 46 57 62 68 77 78 100 100 100 98 89 82 55 44 40 31 25 26 28 29 30 27 25 29 32 35 40 45 43 36 36 45 48 51 50 47 43 40 38 36 33
11 12 13 16 16 17 23 26 80 93 79 76 82 93 93 85 85 77 88 100 100 96 90 99 100 94 70 37 28 29 33 34 32 30 31 34 37 37 40 42 43 38 38 50 51 46 39 35 34 33 31 29 26 24
30 36 49 44 28 34 47 94 100 100 100 96 100 100 100 89 87 85 97 81 84 100 98 76 49 35 34 34 37 39 37 37 42 44 44 45 42 36 30 29 31 32 37 45 41 31 25 24 24 23 22 20 19 18
93 100 100 100 100 79 69 95 100 100 100 100 100 99 97 83 82 91 84 92 100 96 83 71 64 55 52 48 43 44 49 52 51 47 41 36 32 29 31 37 43 44 41 32 25 23 22 20 19 18 17 16 15 16
100 100 96 100 100 100 100 100 100 100 100 100 100 100 100 100 100 100 100 100 100 100 95 82 63 50 44 44 49 52 50 45 40 36 35 37 46 55 54 49 39 30 26 25 22 21 19 18 16 15 14 15 18 21
100 100 100 100 100 100 100 100 100 100 100 100 100 100 99 100 100 96 90 77 63 53 53 50 45 42 43 44 42 38 35 35 38 46 51 50 44 35 30 28 27 24 22 21 20 18 17 15 16 18 19 19 21 21
100 100 98 100 100 100 100 100 100 100 100 100 89 70 54 56 52 56 65 68 58 49 44 40 36 35 34 35 40 44 45 43 38 32 28 27 27 26 26 24 22 22 21 20 16 15 17 19 20 20 19 15 14 15
100 100 99 96 90 87 83 74 63 56 50 50 57 61 61 62 55 46 40 34 32 32 34 38 42 44 44 42 38 35 33 31 29 27 25 24 24 24 24 24 24 22 18 16 18 18 21 24 23 24 18 15 16 18
54 55 56 58 57 56 57 54 52 52 50 48 45 40 34 32 33 40 46 46 46 46 47 46 44 43 42 40 36 31 28 26 26 25 24 24 25 27 27 24 21 19 19 19 18 20 25 29 30 29 25 18 19 24

GFSWCAN_500_rhum_042.txt.gz
RH
100 100 100 59 40 50 47 64 81 99 81 69 69 54 27 20 26 29 56 63 50 21 20 19 18 18 16 15 13 12 11 9 6 5 5 6 7 10 12 13 15 17 17 18 18 16 16 19 18 19 20 21 21 20
87 71 55 70 47 50 63 89 98 95 83 59 95 38 21 23 32 30 67 62 43 29 21 18 17 16 14 13 12 11 10 8 7 7 7 6 5 5 6 6 11 13 19 19 22 24 24 21 21 21 23 24 22 20
91 75 75 94 93 97 99 100 99 100 91 91 92 26 22 42 98 100 99 68 52 38 26 19 15 13 12 11 10 11 10 10 8 7 7 6 5 5 6 6 9 12 15 17 24 31 29 26 25 27 26 23 23 25
84 66 71 76 82 98 100 100 94 100 100 96 63 44 29 53 55 91 100 86 48 39 24 20 23 27 22 16 13 13 13 11 9 7 6 6 5 5 5 5 6 13 14 16 14 25 22 28 27 25 24 24 28 37
76 78 93 100 100 96 99 98 89 94 100 99 69 55 41 44 68 60 75 56 39 33 26 23 20 14 10 8 8 9 10 10 9 8 7 6 6 5 6 5 8 27 25 18 13 20 22 24 24 26 31 40 44 44
91 91 88 99 97 100 97 94 99 100 99 100 100 99 78 58 46 41 51 53 47 39 28 19 14 13 10 8 7 7 8 8 8 8 7 7 6 6 5 6 21 26 23 22 21 22 23 27 34 42 46 45 39 36
99 100 83 92 100 100 100 100 98 100 98 95 96 99 100 100 84 48 39 34 22 16 14 11 10 10 10 11 11 10 10 10 9 9 9 9 10 9 6 12 27 26 29 31 34 40 47 50 48 42 36 37 62 76
90 91 74 75 99 100 100 94 100 100 99 87 71 64 66 70 72 67 58 47 41 33 23 19 18 19 18 18 16 17 15 13 12 13 14 16 14 16 16 31 36 45 50 49 44 42 40 35 30 36 60 77 78 85
84 97 79 97 100 100 100 84 97 100 100 100 96 80 68 64 61 56 51 44 36 30 22 25 29 35 31 36 35 33 30 26 24 25 29 27 24 29 36 40 40 39 35 31 30 31 33 44 63 72 78 83 89 94
100 94 86 100 100 100 97 91 93 100 100 100 100 100 100 100 100 94 88 81 76 71 64 65 70 67 69 71 66 57 51 45 37 38 38 35 37 45 45 40 34 31 31 43 66 76 86 88 85 88 96 99 97 94
100 100 98 98 100 100 100 100 90 100 100 100 100 100 100 100 100 99 97 96 94 89 89 89 90 88 91 91 91 82 70 63 54 48 43 36 30 29 31 38 51 65 79 86 91 94 97 97 96 92 87 82 81 81
100 100 100 100 100 100 100 98 100 99 100 100 100 100 100 100 100 96 80 77 75 76 82 88 91 90 84 82 74 65 62 57 49 40 33 27 30 50 73 82 83 88 92 96 98 97 94 91 87 83 79 79 77 80
100 100 100 100 100 100 100 100 99 95 100 100 100 100 88 86 72 66 61 61 67 59 48 43 42 42 43 48 42 43 34 28 30 31 41 54 78 85 87 84 86 89 92 92 86 81 78 76 73 72 74 92 100 100
100 100 100 98 100 100 100 100 100 92 85 77 79 74 76 83 79 70 62 52 48 51 48 41 38 36 36 36 32 30 40 57 63 66 72 84 89 90 91 90 86 81 79 78 77 72 68 70 83 95 100 100 100 100
100 100 100 100 100 100 100 100 100 100 98 94 92 80 67 69 78 96 96 96 97 97 97 100 96 77 70 65 79 96 100 92 88 91 100 96 93 90 86 83 80 78 76 71 69 77 94 99 98 99 100 100 100 100
100 100 100 99 99 100 100 100 100 100 100 100 89 79 82 86 90 89 83 91 100 100 100 100 100 100 100 100 100 100 100 100 100 99 96 93 88 86 85 82 79 79 84 90 94 98 100 100 100 100 100 100 87 56
100 100 100 100 100 100 100 100 100 100 100 96 86 95 88 82 81 82 84 85 85 88 92 89 87 92 87 86 87 90 93 98 95 93 96 97 95 90 86 86 88 90 92 93 96 100 100 100 100 92 53 25 18 15
96 100 100 100 100 100 100 100 100 100 100 100 100 98 92 93 97 93 88 94 100 100 100 100 100 100 100 100 100 100 100 100 96 94 89 80 74 66 81 87 96 100 100 100 100 99 82 49 31 22 18 16 15 14
13 26 44 73 94 99 99 100 100 100 100 100 100 100 100 100 100 99 100 100 100 100 100 100 100 97 94 89 78 69 59 47 37 30 34 46 56 88 100 100 100 100 98 81 58 45 27 18 18 18 18 17 17 18
12 12 12 12 15 23 28 28 47 51 69 74 84 66 65 82 92 94 92 91 88 78 64 40 24 14 10 8 7 7 7 8 9 11 19 32 38 45 58 75 75 68 61 46 28 19 21 24 25 26 26 25 24 27
13 11 10 10 9 9 9 8 8 8 8 9 10 9 9 9 10 9 11 14 12 8 7 7 7 7 7 7 7 7 8 9 11 14 20 38 68 86 84 75 58 40 22 20 20 22 24 28 31 30 27 24 28 31
14 14 14 14 13 12 11 10 10 10 10 11 10 11 11 11 10 10 9 9 9 8 8 8 8 8 8 8 8 9 10 15 27 54 85 98 95 78 53 35 28 24 23 24 25 27 32 35 34 30 27 29 29 27
17 16 16 15 14 13 12 13 12 12 11 11 11 10 10 10 10 9 9 9 9 8 8 8 8 8 9 9 11 15 31 59 91 100 100 94 68 56 49 48 54 53 38 31 32 39 46 46 36 30 29 28 28 32
17 17 16 16 15 14 14 14 13 13 13 12 12 12 11 11 10 10 9 9 9 9 9 10 11 13 15 19 32 56 83 99 100 100 100 93 86 82 84 88 82 50 39 43 53 54 45 34 28 27 30 33 32 26
16 16 16 16 16 16 16 15 15 14 14 13 13 12 11 11 10 10 10 11 12 14 16 18 21 30 41 61 86 100 100 100 100 100 100 96 93 90 79 64 63 68 69 59 45 39 34 30 31 33 30 25 24 23
13 13 13 13 12 12 12 12 12 12 11 11 11 11 12 12 12 14 17 30 40 48 53 61 74 87 97 98 97 98 99 95 88 84 87 89 90 94 97 96 80 57 45 40 35 31 33 34 30 26 24 23 22 20
12 12 11 10 10 9 9 9 9 10 11 12 12 14 20 30 44 49 63 70 80 84 82 80 82 90 97 100 97 90 86 89 92 93 95 98 98 86 63 51 45 39 34 33 34 34 30 27 26 25 24 22 20 20
28 26 23 23 21 27 35 38 31 25 26 27 40 72 100 100 97 94 92 89 92 89 94 96 94 98 100 100 98 95 93 96 99 96 82 64 56 49 40 34 33 33 33 30 28 28 30 28 26 23 22 23 22 17
70 81 88 97 100 100 100 100 100 97 73 100 100 100 100 97 86 94 100 95 85 84 85 87 90 92 91 89 88 86 76 69 64 56 48 40 35 33 32 33 33 31 34 36 34 32 27 23 23 25 26 25 20 17
91 90 85 82 90 98 100 100 100 98 100 100 100 99 97 94 100 100 100 100 100 100 100 98 99 100 97 85 75 66 56 45 38 36 35 37 39 37 34 38 43 41 37 32 26 24 24 26 29 29 27 24 20 19
99 97 98 95 95 92 100 100 100 100 100 100 100 100 100 100 100 100 100 100 100 100 100 90 72 58 49 43 38 35 36 37 40 43 44 39 37 41 46 44 37 29 24 24 26 28 32 35 33 29 26 25 24 22
100 100 100 100 100 100 100 100 100 100 100 100 100 100 100 100 100 95 80 65 53 47 42 38 35 35 36 39 42 43 44 46 40 37 40 43 44 38 30 24 22 23 26 30 33 36 37 35 30 28 26 26 26 23
88 87 87 85 80 80 81 82 78 75 70 63 59 58 54 47 42 38 36 36 37 39 41 44 47 49 49 49 47 42 38 38 42 43 36 26 20 20 21 25 30 33 36 39 39 38 34 29 28 28 28 28 28 26

GFSWCAN_500_rhum_045.txt.gz
RH
99 98 100 100 99 99 89 59 38 26 46 79 83 62 66 63 85 83 32 66 47 38 25 24 28 25 23 22 22 20 17 14 13 12 9 6 6 7 8 13 17 19 18 19 18 16 17 20 20 18 18 18 20 22
100 100 100 96 96 87 45 33 37 42 46 93 100 94 79 89 85 35 36 55 40 59 28 27 29 27 24 23 22 20 17 14 12 11 10 8 7 7 8 7 7 7 8 7 9 11 14 13 12 14 20 24 27 30
100 85 73 42 39 42 39 61 97 98 100 100 98 98 98 80 37 34 35 54 65 91 44 28 26 24 23 22 20 18 15 13 12 11 10 9 8 8 7 6 7 8 9 8 8 16 12 8 8 12 17 27 31 29
94 83 58 40 37 65 92 99 100 100 99 99 95 97 62 39 35 51 67 99 99 99 79 28 29 24 22 20 18 16 14 12 11 11 10 10 9 8 7 7 7 8 8 8 7 9 7 12 16 19 23 24 24 25
63 42 41 45 55 80 88 100 100 96 92 95 99 85 53 43 48 62 81 90 99 100 76 65 29 23 21 18 16 13 13 12 12 12 12 12 11 10 9 8 9 12 10 8 8 11 12 17 22 23 24 26 34 45
72 77 87 100 89 95 99 100 96 92 97 99 73 38 47 55 59 91 100 88 84 84 68 70 66 48 67 34 25 27 21 13 8 8 7 7 8 8 8 8 13 13 13 13 15 18 21 22 26 37 49 52 47 39
94 99 100 100 90 89 90 100 100 100 100 98 87 78 64 58 68 99 100 100 100 91 70 59 56 56 62 77 46 20 12 9 8 7 6 7 7 7 8 11 17 19 20 24 27 29 36 45 48 44 38 34 33 45
71 89 100 89 100 100 85 94 100 97 100 99 88 68 66 53 61 82 86 86 84 82 68 55 44 37 30 29 20 15 11 9 8 9 8 9 9 11 11 22 30 34 38 43 44 44 42 39 34 34 54 74 88 96
100 100 100 99 98 100 90 69 84 90 99 100 100 99 97 84 83 70 53 46 40 38 33 29 26 27 22 21 19 17 15 14 12 12 15 14 18 25 35 39 40 40 43 45 44 37 31 37 60 82 95 99 100 100
92 100 97 100 100 100 100 95 97 80 85 93 96 96 95 94 94 89 83 68 57 45 40 42 42 35 35 34 34 29 28 27 22 29 32 31 35 53 56 54 50 42 34 32 37 57 79 90 98 100 100 100 100 100
100 100 94 96 100 100 94 100 97 92 94 96 94 92 87 84 69 58 50 47 47 48 59 70 83 89 89 78 80 70 61 61 52 56 64 57 56 53 46 41 38 40 54 75 93 95 94 99 100 100 100 100 98 92
100 100 100 96 100 96 100 100 99 99 95 97 96 100 98 100 100 99 99 100 100 100 100 100 99 95 93 94 87 77 73 67 58 56 51 43 43 38 39 55 76 93 100 100 99 98 99 99 99 99 97 91 80 72
100 100 100 100 100 100 100 100 99 97 100 100 100 100 100 99 99 100 99 95 99 100 100 100 94 82 67 55 45 42 35 30 30 26 23 24 32 57 85 98 99 100 100 100 100 100 98 94 86 76 74 71 73 91
100 100 100 100 100 100 100 100 100 100 100 96 100 100 93 95 93 97 99 99 96 96 93 91 78 49 44 43 39 33 30 29 27 27 31 53 79 90 90 96 95 91 89 87 87 84 80 77 76 77 82 94 100 100
100 99 99 100 100 100 100 99 100 100 100 100 98 99 100 100 98 96 96 94 88 93 100 93 70 73 78 77 83 82 70 58 56 69 73 82 88 93 94 92 88 85 82 82 82 82 77 74 80 87 91 97 100 98
99 100 100 99 98 94 95 94 95 96 90 92 97 100 93 95 91 85 84 81 79 78 86 89 96 100 100 99 97 100 100 97 96 96 94 93 92 92 91 88 89 90 88 82 75 69 76 89 96 100 100 96 66 41
100 100 100 94 100 100 100 100 100 100 91 78 77 83 91 94 89 85 84 85 87 90 99 100 100 100 97 96 96 95 95 92 88 88 90 92 87 90 90 87 81 69 50 39 57 86 97 100 100 93 61 47 29 23
100 100 100 100 100 100 100 100 100 100 100 99 100 100 100 100 94 90 97 97 92 87 85 87 87 88 89 90 94 96 97 98 100 99 94 78 64 47 28 19 12 19 59 100 100 100 98 82 61 59 48 34 24 25
100 100 100 100 100 100 100 100 100 100 100 100 97 97 94 90 87 94 100 100 100 100 100 100 100 100 100 100 99 98 89 76 53 27 14 8 6 7 8 15 28 39 52 65 77 79 75 68 56 38 25 23 25 30
98 98 100 100 100 100 100 100 100 100 100 100 100 100 100 100 100 100 100 100 100 100 100 100 96 92 83 74 59 41 25 13 8 7 7 8 8 10 13 19 32 60 82 87 79 63 44 34 30 31 35 34 35 34
33 36 32 35 55 96 88 100 100 100 100 100 98 99 100 100 100 100 97 78 61 34 26 20 16 14 10 9 8 8 8 8 8 8 8 10 13 25 45 71 94 100 97 75 52 48 50 60 75 75 60 44 47 54
15 13 11 10 10 10 17 14 16 18 26 17 12 12 14 14 12 12 11 9 9 9 9 9 9 9 9 8 8 8 8 8 8 9 11 16 34 52 77 100 100 99 83 80 86 94 95 87 75 65 64 65 57 44
16 16 15 15 14 14 14 13 12 12 11 11 11 11 11 11 11 10 10 10 10 10 10 9 9 9 9 9 8 8 9 10 12 16 21 38 72 93 100 100 100 100 100 98 95 90 88 89 90 80 61 47 38 26
19 18 18 17 17 16 16 15 15 14 14 13 13 12 12 12 12 12 12 12 12 12 11 11 10 10 10 10 10 12 15 20 34 62 81 92 100 100 100 100 100 100 100 100 99 94 84 74 58 48 39 28 25 27
19 18 17 17 17 16 16 15 15 15 15 15 14 15 14 14 14 13 13 12 12 12 11 11 11 11 13 17 24 31 49 71 93 100 100 100 100 100 100 100 97 91 85 84 84 72 57 46 36 30 28 29 24 24
15 14 14 13 13 13 13 13 13 13 13 13 13 13 13 13 12 12 12 12 12 12 13 16 21 32 44 56 65 82 94 99 100 100 100 100 99 95 91 89 87 83 74 62 51 43 35 31 31 28 23 25 31 30
14 13 13 13 12 12 12 11 11 11 10 10 9 9 9 9 10 11 12 15 20 32 51 68 79 82 85 86 83 82 85 90 95 97 95 92 86 83 82 80 70 58 49 39 33 32 31 24 21 26 33 30 23 20
14 12 12 11 10 9 9 9 9 9 10 10 10 12 16 23 39 41 50 71 91 90 87 87 91 94 94 95 94 93 96 98 98 98 98 98 92 79 65 51 41 35 33 32 28 20 19 27 34 30 22 20 22 29
44 47 50 47 48 65 73 68 69 77 82 73 59 75 99 97 99 100 100 100 100 97 100 100 100 95 85 85 97 100 100 100 100 99 86 61 42 37 34 32 32 32 26 20 24 32 33 26 19 18 22 27 33 34
66 56 64 79 73 68 72 79 87 100 100 97 100 100 100 100 100 100 98 90 93 97 100 100 100 99 100 100 100 99 89 68 44 38 35 35 35 36 37 33 24 25 32 35 28 20 17 18 22 27 32 35 35 31
80 80 88 91 90 88 95 94 96 99 100 98 100 100 99 93 91 96 98 96 99 100 100 100 100 92 72 49 39 37 37 38 40 41 42 41 36 28 26 31 36 34 24 18 18 21 24 29 33 36 37 34 30 28
88 95 96 100 100 99 100 100 100 100 100 100 100 100 100 100 100 100 100 94 84 65 50 43 40 39 39 39 39 39 40 41 42 39 32 30 34 39 38 31 22 18 18 22 25 27 29 34 34 32 28 27 28 28
81 79 74 72 70 67 66 64 61 61 60 59 59 56 53 51 48 45 42 40 40 41 43 44 45 43 42 40 40 42 43 39 36 38 41 41 36 30 22 18 19 23 25 26 26 30 32 30 27 26 26 27 28 28

GFSWCAN_500_rhum_048.txt.gz
RH
85 72 63 77 99 100 95 99 100 100 98 86 65 51 66 72 52 59 68 95 70 58 94 59 37 24 30 48 63 46 26 17 16 14 13 12 10 7 7 9 11 14 16 16 15 13 12 12 9 7 9 8 9 11
100 100 100 100 100 96 100 100 100 96 90 77 74 70 92 71 56 91 99 98 66 75 83 50 34 28 34 46 58 49 30 22 17 14 12 13 11 9 8 8 10 9 9 8 8 9 9 7 6 6 7 7 8 10
100 100 100 100 100 100 100 100 98 89 61 86 78 72 90 62 83 100 100 99 88 95 72 42 33 29 31 33 41 39 28 22 19 16 15 12 11 11 10 9 10 9 8 8 8 9 8 7 7 7 8 10 15 19
98 100 99 100 100 92 82 83 86 96 100 100 94 78 66 71 90 100 100 68 68 97 65 39 30 28 30 31 32 29 26 23 20 17 15 12 11 11 11 11 10 10 9 9 9 9 8 9 9 10 10 14 18 21
99 99 96 97 90 91 78 74 81 74 81 89 75 76 76 68 96 91 64 68 98 99 84 66 36 27 29 30 29 26 24 21 18 16 14 12 11 10 12 12 12 11 10 9 9 10 10 9 10 13 16 20 24 34
72 78 63 46 40 39 44 55 86 99 100 100 98 93 93 100 73 84 55 80 89 100 99 90 59 39 41 40 28 24 22 20 17 14 12 12 15 14 10 8 8 8 9 10 11 12 12 13 17 22 30 39 46 45
39 41 44 69 76 85 99 100 98 94 84 88 95 95 59 51 72 66 74 100 100 95 99 100 95 71 55 37 29 26 22 20 20 20 22 18 10 9 8 8 9 10 12 15 18 21 25 30 34 38 42 44 39 34
90 99 97 97 99 93 97 91 99 100 99 100 100 95 100 100 99 85 92 100 96 100 100 98 97 89 74 69 60 62 75 91 42 23 18 14 12 10 9 14 16 20 25 29 33 36 39 44 48 46 36 34 46 71
100 98 100 94 100 93 88 88 98 100 99 100 100 100 100 100 100 89 100 100 100 100 99 88 94 84 88 76 76 75 71 62 43 22 15 13 15 17 26 29 31 37 42 47 51 52 48 39 34 43 61 78 90 94
99 99 100 100 100 100 100 88 100 87 99 94 82 75 89 98 92 97 100 97 96 99 96 96 82 64 56 48 42 37 28 21 16 16 16 14 22 40 49 56 62 62 58 50 44 40 38 40 48 69 91 95 98 100
100 100 100 100 100 100 100 98 94 99 100 98 85 69 92 92 100 96 87 75 68 60 50 47 41 36 37 34 29 25 24 25 22 24 29 33 56 79 77 69 64 60 54 49 48 56 72 84 92 96 99 100 98 97
92 94 98 100 98 100 100 100 90 92 100 100 100 100 100 93 94 89 79 78 67 67 62 56 55 51 50 49 50 52 56 55 49 61 68 64 67 60 51 43 36 34 35 50 72 86 94 99 99 99 96 97 94 87
100 100 99 100 100 100 100 100 84 68 92 100 98 95 95 96 94 82 71 68 72 90 95 98 99 99 99 96 89 86 77 62 58 48 40 36 36 34 32 32 33 39 56 83 99 100 100 99 95 89 85 81 78 74
100 100 100 99 100 100 100 99 100 100 100 92 99 94 97 100 95 100 100 100 100 99 97 99 100 98 97 90 79 64 47 42 38 37 45 49 46 47 52 64 76 90 100 100 100 96 90 84 83 82 77 68 68 78
100 99 100 100 100 100 100 100 100 92 97 100 100 100 99 87 100 100 99 100 100 100 97 92 87 83 85 79 77 67 58 56 63 80 89 90 89 92 93 91 88 86 83 81 81 83 83 74 51 32 34 51 71 97
100 100 100 99 100 100 100 100 100 100 100 100 100 99 99 100 94 96 98 98 93 84 74 72 73 74 92 95 92 91 89 86 91 97 95 90 88 85 81 78 79 82 86 83 65 33 16 11 10 29 60 83 76 56
100 98 98 100 100 96 95 96 93 98 98 97 98 100 100 100 99 100 99 93 84 85 87 90 95 100 99 99 100 100 100 100 98 93 89 83 83 87 89 87 81 62 32 14 11 9 8 19 46 53 66 65 61 59
100 100 99 100 100 100 100 100 98 91 86 87 89 97 98 95 92 91 90 93 100 100 99 99 98 94 93 96 98 95 95 92 89 91 95 94 91 80 59 32 16 10 7 7 8 11 16 23 39 74 76 73 58 43
100 100 100 97 100 100 100 100 100 98 94 94 99 98 100 100 94 86 95 100 100 100 99 99 97 95 95 93 91 94 98 100 99 91 74 52 27 12 8 7 7 8 8 9 10 14 30 54 78 86 80 64 59 72
100 100 100 100 100 100 100 100 100 100 100 100 100 100 100 100 98 95 93 93 93 96 96 97 98 100 100 100 98 91 80 61 38 18 9 8 8 8 8 8 8 9 11 18 30 49 76 87 93 87 88 91 84 74
100 100 100 100 100 100 100 100 100 100 100 100 100 100 100 100 100 100 100 100 100 100 100 96 89 78 60 38 19 11 9 9 9 8 8 8 8 8 9 10 14 22 36 62 83 96 100 100 100 99 92 83 82 77
89 93 98 99 99 100 100 100 100 100 100 100 100 100 100 100 100 98 88 80 65 50 38 24 16 12 10 10 10 9 9 9 9 9 9 9 9 10 13 18 27 47 74 95 100 99 98 100 96 88 88 84 70 57
17 20 25 36 70 68 48 55 53 71 82 79 82 85 77 68 45 32 16 12 11 11 11 11 10 10 10 10 10 11 11 11 10 10 10 11 13 18 25 43 64 85 97 100 100 100 95 90 92 88 75 62 53 46
19 17 17 16 17 15 16 14 14 13 13 13 13 12 12 12 12 12 12 12 12 11 11 12 12 12 12 12 12 12 11 11 11 13 17 22 33 60 83 98 100 100 100 100 99 98 97 91 77 66 58 46 34 27
20 20 19 18 18 17 16 16 16 16 15 15 14 14 14 14 14 14 13 14 14 14 13 13 13 13 12 12 12 12 14 18 24 36 54 82 97 99 99 100 100 100 100 100 99 92 80 72 59 43 32 28 26 20
21 20 19 18 17 16 15 15 14 14 13 13 13 13 13 13 13 13 13 13 13 12 12 12 12 12 13 14 21 32 48 67 85 95 92 88 94 100 100 100 97 92 94 90 82 70 50 35 30 31 29 22 24 30
14 14 13 13 12 12 12 12 12 12 12 12 12 12 12 12 11 11 11 11 11 11 12 14 19 28 50 79 90 92 91 93 97 100 100 100 100 98 91 88 89 83 73 56 38 32 32 34 30 24 26 31 26 18
14 13 13 12 12 11 10 10 9 8 8 8 8 8 8 9 10 12 16 27 34 51 76 95 99 100 100 100 100 100 100 100 100 98 92 92 91 92 86 69 49 38 34 34 36 36 29 24 28 33 28 19 17 20
17 16 15 16 16 16 19 21 24 33 46 55 58 49 40 38 62 100 100 100 100 100 100 100 100 100 100 99 100 100 100 100 100 98 94 83 66 46 38 35 35 36 36 33 27 25 32 36 32 21 17 20 23 27
36 50 45 50 52 61 61 56 50 52 61 67 63 71 86 86 99 100 100 100 100 100 100 100 100 100 99 95 98 100 100 96 82 57 42 38 37 37 37 37 36 32 29 31 38 39 34 25 18 18 22 24 27 30
74 75 74 71 68 70 69 71 72 76 75 76 86 93 96 100 99 94 87 88 88 87 95 100 100 100 100 96 82 60 44 42 42 42 42 40 39 39 38 35 33 36 40 41 36 26 18 18 21 24 24 26 28 28
83 84 78 76 79 81 82 89 87 84 82 79 75 80 86 90 94 98 94 90 89 86 78 67 52 44 41 42 45 48 49 48 47 45 42 41 40 38 37 38 42 41 35 24 17 16 18 23 26 27 27 28 28 26
62 63 62 64 63 60 60 59 58 59 59 59 58 58 56 51 49 46 45 43 41 40 38 39 43 51 56 57 56 54 52 49 46 46 46 43 42 42 41 36 27 19 16 16 18 22 26 27 28 28 28 27 26 26

GFSWCAN_500_rhum_054.txt.gz
RH
92 96 99 80 72 65 86 87 66 64 52 16 3 2 40 11 9 5 7 56 95 76 97 88 88 76 63 75 86 79 49 54 37 21 20 20 21 18 14 11 8 8 9 16 20 23 22 19 14 10 10 7 8 8
85 100 98 96 89 96 95 100 52 64 50 10 3 10 92 22 4 4 11 74 85 99 99 87 86 84 70 92 76 88 40 46 33 20 20 23 23 19 17 14 11 10 10 10 11 11 9 8 7 8 8 9 9 9
74 80 86 97 99 100 100 84 24 43 16 5 13 16 22 74 100 96 83 76 99 97 100 100 87 86 80 92 88 86 46 52 44 19 25 25 23 22 18 16 14 13 11 10 10 13 10 10 10 10 10 10 10 8
53 44 39 37 32 29 27 24 17 12 6 10 78 92 58 98 88 77 77 89 98 100 100 98 85 84 87 99 93 88 44 42 60 55 35 27 23 22 20 19 16 15 13 14 13 13 12 9 12 12 10 8 7 8
100 100 100 99 52 34 25 24 7 13 64 88 79 83 67 94 100 100 81 73 93 98 96 99 77 65 94 96 89 99 58 65 83 87 41 26 23 23 20 18 17 15 14 13 12 13 13 12 13 10 8 8 8 9
57 37 19 31 18 12 36 54 97 96 100 100 100 100 100 100 100 100 100 96 72 93 98 94 76 64 80 96 99 100 64 55 59 70 55 41 50 34 24 20 17 16 16 15 13 13 15 14 11 10 9 9 11 15
100 100 95 67 94 99 97 98 95 90 97 90 100 100 100 100 100 98 81 86 96 96 97 90 72 60 64 94 100 100 64 40 56 71 73 65 61 40 27 23 19 19 18 16 16 18 19 16 13 11 12 14 19 34
100 100 100 100 93 79 76 85 85 79 78 100 100 100 100 100 100 97 99 100 80 86 97 96 71 68 73 88 94 93 63 34 40 45 61 60 48 35 26 22 22 20 19 20 24 24 20 17 14 14 20 33 54 60
100 100 100 100 100 100 100 100 100 100 100 100 99 100 100 100 99 100 100 100 98 99 96 96 100 92 86 84 69 69 40 35 32 33 35 36 33 28 24 24 23 31 41 41 39 25 18 16 23 35 56 64 60 48
100 100 97 98 99 100 100 100 99 99 99 100 100 99 100 97 97 100 100 100 100 96 95 96 99 98 89 68 53 54 50 45 46 39 38 41 37 31 28 35 56 79 72 45 26 23 28 39 61 66 61 44 32 32
100 100 100 100 88 90 91 87 93 99 100 94 96 94 92 98 100 100 93 94 80 86 95 95 100 100 94 87 72 80 80 80 73 59 61 55 58 82 92 88 79 59 38 31 33 47 67 68 54 40 34 36 51 77
100 100 100 100 100 100 100 99 96 91 86 87 85 92 90 100 98 100 94 83 84 96 98 98 98 100 100 99 99 100 100 100 89 86 92 84 90 86 72 55 42 41 46 62 73 62 45 38 39 48 67 87 99 99
100 100 97 100 100 100 100 100 99 100 100 98 98 97 85 84 90 88 82 99 99 100 100 99 100 100 99 100 100 100 100 100 97 94 84 72 60 56 55 64 71 68 59 47 44 52 70 85 94 99 100 96 90 89
98 100 100 100 100 99 100 100 100 100 100 99 100 100 98 96 94 87 91 100 100 100 99 98 98 99 100 98 88 79 72 63 56 52 47 64 82 81 74 67 58 54 56 64 79 94 100 100 100 97 94 89 81 54
99 99 100 100 100 99 100 100 100 100 100 100 100 100 96 94 98 100 100 100 99 100 100 100 97 93 80 69 61 55 54 43 45 64 86 87 85 76 73 74 75 80 88 98 100 100 100 98 95 88 77 50 24 10
90 90 96 94 100 100 100 100 88 97 100 100 95 99 100 100 100 98 100 100 100 98 86 86 85 79 76 73 75 86 87 78 77 79 80 80 78 77 87 90 92 98 100 100 100 97 93 90 81 52 24 10 7 7
88 87 80 84 93 99 100 100 100 100 100 100 100 99 100 100 100 100 100 100 100 99 98 99 99 100 99 98 93 84 82 93 99 96 94 95 95 93 97 100 100 100 100 99 95 97 86 55 26 10 8 8 8 8
100 100 90 80 82 98 100 100 100 94 92 100 100 100 100 100 100 100 98 95 96 98 98 100 100 100 97 92 93 93 90 90 97 100 98 97 100 100 100 100 99 93 93 94 90 63 28 10 8 8 9 9 9 9
100 100 98 100 100 100 100 100 100 100 98 99 100 95 87 91 88 92 97 100 100 100 98 97 96 100 100 100 96 90 88 94 95 98 100 100 98 96 93 93 97 98 85 54 22 10 8 9 9 10 10 10 10 12
96 99 100 100 99 98 96 100 100 100 100 100 100 100 98 96 100 100 99 100 100 100 100 100 100 100 100 100 100 100 100 100 100 100 98 95 98 100 100 96 64 32 15 10 9 9 10 10 11 11 11 13 17 31
59 72 85 95 99 100 100 100 100 100 100 100 100 100 100 100 100 100 100 100 100 100 100 100 100 100 100 100 100 99 98 98 98 100 100 96 83 62 38 17 11 9 10 10 11 11 12 12 12 14 18 29 49 65
54 59 59 70 81 91 100 100 97 99 100 100 100 100 100 100 100 100 100 100 100 100 100 100 100 100 99 99 100 100 97 90 80 63 41 23 14 11 10 10 10 12 12 12 12 13 14 17 23 35 54 67 85 94
68 72 86 86 85 83 98 100 100 100 100 93 94 100 100 100 100 100 100 100 100 100 100 100 100 100 100 96 84 67 48 32 23 16 12 11 11 12 12 13 13 13 13 14 16 19 27 41 65 81 88 95 98 89
66 72 51 52 71 85 100 100 100 100 100 100 100 100 100 100 100 100 100 100 100 100 100 96 88 71 56 41 31 22 15 13 12 12 13 13 13 13 13 13 14 15 19 24 40 61 81 90 90 93 98 94 82 66
20 22 48 49 29 26 26 32 38 63 79 92 96 97 96 95 94 95 90 86 80 73 56 39 28 19 15 14 14 14 14 14 14 13 13 13 13 14 15 21 33 47 64 85 94 90 90 98 100 98 88 71 52 40
21 22 21 21 21 21 20 20 19 18 18 17 17 18 18 18 18 17 16 16 15 15 14 14 14 13 13 13 13 13 13 13 13 14 15 18 25 34 51 81 99 100 100 100 100 100 100 100 96 78 57 45 40 40
22 22 23 23 23 22 21 20 19 19 18 18 17 16 16 15 14 14 13 13 12 12 12 12 11 12 12 12 12 13 14 17 24 29 46 68 91 100 100 100 98 93 98 100 100 100 98 81 60 48 44 43 44 42
15 15 16 17 18 18 18 18 17 17 16 15 14 13 12 12 12 11 11 11 11 11 11 11 11 12 14 19 31 53 65 89 99 100 100 100 100 100 100 100 100 100 100 99 88 70 54 47 46 48 50 49 46 43
16 16 16 15 15 15 14 14 14 13 13 12 12 11 11 12 12 12 13 13 13 14 15 16 24 42 70 98 100 100 100 100 100 100 92 89 94 100 100 99 93 81 65 52 49 50 53 55 57 56 52 47 42 33
21 20 18 18 18 17 18 18 18 18 18 20 21 23 26 31 33 35 34 35 38 45 49 54 60 66 71 71 74 82 86 85 83 84 86 81 75 68 59 47 42 45 49 55 60 62 62 58 53 45 34 22 18 18
47 47 47 44 40 44 46 44 44 43 43 44 46 47 49 52 52 51 53 54 54 53 52 52 54 58 62 68 73 75 75 66 57 48 39 37 35 36 42 52 60 65 66 66 60 52 41 27 19 17 18 19 20 21
69 70 70 67 63 63 60 56 53 49 49 51 52 52 52 53 51 47 46 44 41 38 35 34 32 32 33 32 32 31 31 32 33 38 47 58 63 65 66 65 60 52 39 25 18 17 18 21 25 29 34 39 43 46
36 35 32 32 34 37 38 38 40 41 40 39 39 39 37 35 34 30 29 28 27 26 26 27 28 29 32 35 40 44 47 50 53 55 58 56 51 39 26 19 18 19 22 28 35 44 53 60 64 68 72 76 80 82

GFSWCAN_500_rhum_057.txt.gz
RH
95 96 98 79 60 73 78 40 94 100 100 97 20 1 1 2 2 3 3 3 3 5 56 22 28 21 25 22 25 30 34 40 76 98 95 46 31 22 18 17 15 10 7 8 10 15 19 23 24 24 22 17 13 10
100 90 62 71 98 86 67 100 100 100 100 83 33 1 2 2 2 3 3 3 2 51 71 65 63 37 28 14 32 22 33 58 97 95 82 68 44 19 20 17 15 13 10 9 11 12 11 9 9 10 12 11 10 11
58 61 81 80 85 65 100 100 100 100 100 59 27 1 2 2 3 3 5 12 3 12 73 96 90 73 34 24 31 36 45 75 85 91 65 57 47 26 21 25 22 13 15 14 13 12 10 9 11 12 11 10 11 12
65 73 81 75 71 75 90 98 96 96 84 53 18 2 2 2 6 9 40 34 35 43 31 55 70 81 79 35 28 35 61 98 94 100 72 52 43 32 30 32 29 19 16 16 16 13 12 12 11 11 11 12 14 13
91 91 93 95 98 100 100 100 94 63 44 29 10 2 14 26 21 92 68 72 98 98 93 78 90 100 84 74 58 46 84 100 97 97 52 47 44 30 36 33 31 27 21 20 18 16 16 14 13 13 12 13 16 16
30 62 100 100 100 81 86 87 80 34 24 8 4 2 6 6 43 98 100 80 72 65 100 95 100 98 88 72 61 62 72 97 94 91 64 52 84 52 46 38 31 28 24 21 20 20 17 16 16 16 16 19 19 18
98 95 83 57 41 25 17 15 21 22 11 3 3 23 82 98 76 91 58 100 97 99 100 98 98 94 95 95 81 77 76 90 96 97 75 87 85 76 62 38 31 38 36 26 23 22 20 19 19 18 20 24 23 18
100 100 100 100 83 63 36 37 30 12 2 44 100 84 70 100 92 73 51 95 99 86 91 79 78 88 92 83 90 80 77 96 100 99 97 78 83 82 66 50 40 55 54 34 26 24 23 24 28 38 44 30 22 25
72 57 76 50 38 18 6 4 3 3 56 100 99 100 68 76 100 100 99 85 80 100 99 94 85 91 94 84 82 76 80 97 98 98 100 64 58 71 61 61 71 66 48 33 29 27 30 43 68 60 36 31 30 46
100 86 87 99 72 49 34 30 53 62 79 74 79 100 100 100 98 100 91 93 94 84 85 90 95 98 98 89 69 58 55 64 78 86 97 71 56 57 58 55 53 44 36 34 36 51 72 79 65 38 34 42 63 58
100 100 100 100 99 100 100 100 100 96 81 98 100 100 100 100 94 79 72 77 88 94 92 80 80 86 99 98 89 80 83 93 94 91 94 72 41 43 49 57 62 51 50 59 83 87 75 56 43 50 57 56 44 48
99 96 92 97 98 96 100 100 99 99 100 96 95 98 100 100 99 98 91 82 84 70 65 68 82 86 82 98 98 99 96 100 99 99 98 82 59 71 83 80 74 89 94 93 87 72 56 59 63 56 52 61 78 90
100 100 99 99 99 99 99 100 100 98 99 100 100 100 100 90 92 76 99 91 96 91 90 93 95 98 100 98 100 100 96 93 97 96 95 96 99 100 100 100 100 99 92 78 67 66 67 59 57 62 76 93 99 100
99 89 99 100 100 98 96 94 91 98 98 86 93 88 99 100 99 100 100 99 89 78 82 95 100 100 100 100 100 100 100 100 99 100 100 100 100 99 99 99 100 98 100 96 89 78 72 74 83 97 100 100 99 94
100 99 90 82 88 96 96 96 90 92 91 87 94 100 95 100 100 100 100 97 96 98 99 98 95 92 96 95 98 98 100 99 100 100 100 99 97 97 100 100 100 98 85 75 77 89 96 100 100 100 99 97 94 87
100 100 100 100 100 93 100 100 100 100 99 98 93 94 91 90 99 97 98 98 100 100 98 95 92 88 92 90 89 96 98 94 81 92 99 100 100 100 100 98 100 98 98 99 99 100 100 100 100 100 97 92 72 40
94 92 100 100 100 100 100 100 100 100 100 100 99 100 100 99 100 100 100 100 100 100 99 100 99 90 90 89 88 86 90 100 100 100 100 92 87 95 94 95 99 100 100 100 100 100 100 100 100 100 85 51 18 9
88 96 100 98 100 100 100 100 100 99 100 100 99 100 100 100 100 100 100 99 100 100 99 99 97 96 91 93 100 100 100 100 100 100 97 94 96 95 97 100 100 100 98 100 100 100 100 100 93 46 20 11 9 10
97 90 86 92 97 100 100 100 100 100 100 100 100 100 100 100 100 100 100 100 100 100 100 100 100 100 100 100 100 99 100 100 100 100 99 99 100 100 97 98 100 100 100 100 100 100 85 42 18 12 9 10 11 11
88 97 99 87 89 98 100 100 100 100 100 100 100 100 100 100 100 100 100 100 100 100 100 100 100 100 100 100 100 100 100 100 100 100 100 100 100 100 98 98 100 100 100 93 60 32 16 11 10 10 11 12 13 13
35 47 74 92 89 98 100 100 100 100 100 100 100 100 100 100 100 99 98 100 100 100 100 100 100 100 100 100 98 100 100 100 100 100 100 99 100 100 100 100 88 55 28 15 12 11 11 11 12 13 14 15 17 22
22 26 43 60 77 91 95 97 95 100 100 100 100 100 100 100 100 100 100 100 100 100 100 100 100 100 100 100 100 100 100 100 100 100 100 100 97 78 52 29 18 14 12 12 12 12 13 14 14 15 18 27 39 57
26 22 24 26 37 56 66 88 96 95 95 99 100 100 100 100 100 100 100 100 100 100 100 100 100 100 100 100 100 100 100 100 100 100 94 75 50 33 21 16 13 12 13 14 14 15 16 19 25 38 54 68 81 86
48 54 49 44 39 52 58 76 93 99 99 97 100 100 100 100 98 100 100 100 100 100 100 100 100 100 100 100 100 100 100 95 89 65 36 21 16 14 14 14 14 14 14 15 17 21 29 38 54 75 86 85 88 94
17 25 49 63 49 56 78 90 97 100 100 100 100 100 100 100 100 100 100 100 100 100 100 100 100 100 99 97 91 80 49 27 18 15 14 14 14 14 14 14 15 17 19 30 39 50 77 99 100 100 100 100 97 98
17 17 17 20 29 47 38 28 25 32 31 37 48 60 66 70 84 86 89 89 88 79 67 50 37 24 18 16 15 14 14 14 13 13 13 13 14 15 18 24 34 49 74 91 100 100 100 98 97 100 100 100 100 91
18 18 19 20 20 20 21 22 22 22 21 20 19 19 19 20 19 20 18 16 16 15 14 14 13 13 13 12 12 12 12 12 13 14 16 19 39 55 68 88 100 100 100 100 99 99 99 100 100 99 85 63 49 45
20 18 15 19 21 21 21 21 21 20 20 20 19 18 18 17 16 15 14 14 13 13 12 12 12 12 12 12 12 13 14 16 27 50 76 87 92 96 100 100 100 99 99 100 98 91 76 62 51 45 46 52 62 67
18 18 17 15 15 15 15 16 16 16 15 15 15 14 14 14 14 13 13 14 14 14 15 16 16 18 21 25 31 38 45 55 63 69 73 77 83 90 93 91 87 79 69 58 48 40 40 43 54 64 65 62 55 42
19 18 18 18 18 17 17 16 16 16 15 15 15 15 15 17 19 22 26 29 29 30 31 34 39 40 42 42 42 42 41 42 44 48 52 55 54 48 43 38 34 34 37 43 49 55 57 55 48 37 26 20 19 22
37 34 31 32 31 29 30 32 33 34 33 33 34 35 37 39 41 44 43 41 40 40 40 40 39 36 35 33 31 29 28 28 27 28 29 30 32 35 38 41 43 44 44 40 33 25 20 20 24 32 43 51 57 62
67 67 66 63 60 59 57 53 54 54 54 53 53 52 51 49 47 43 45 41 38 35 32 29 26 25 25 25 26 29 32 34 35 36 37 38 39 36 29 21 17 17 20 24 35 45 52 56 59 61 63 64 67 70
37 37 35 34 33 32 31 30 29 30 33 33 34 34 36 33 31 27 25 24 24 24 25 27 30 35 37 36 34 34 35 35 33 25 16 15 17 23 31 40 46 51 56 61 62 64 66 66 63 58 52 51 50 51

GFSWCAN_500_rhum_060.txt.gz
RH
98 99 100 100 100 100 100 98 75 64 74 55 35 4 2 2 2 3 3 3 4 6 10 17 45 45 35 74 57 25 24 19 30 90 85 85 62 44 36 50 46 31 18 10 8 7 8 13 21 25 30 32 34 27
100 100 100 100 100 100 90 82 67 71 85 66 21 60 7 2 2 3 3 3 3 5 17 32 27 21 41 30 28 39 24 31 56 63 55 98 97 86 44 32 37 34 22 16 13 9 8 10 13 16 18 15 13 15
98 100 100 100 100 92 76 67 70 76 59 26 44 81 2 1 2 3 2 3 3 4 8 40 61 29 15 28 25 31 26 55 64 97 99 88 88 95 84 47 40 27 20 17 17 13 12 13 13 13 14 15 14 13
76 83 78 70 72 74 69 67 55 58 100 100 100 47 2 2 2 3 5 9 4 22 32 77 84 44 15 13 13 12 60 78 80 76 54 64 97 100 84 72 53 32 20 22 22 18 18 17 16 16 15 14 14 13
82 81 86 93 90 79 82 85 100 100 100 100 100 21 1 2 2 3 24 8 3 7 30 75 95 63 48 18 16 39 26 46 91 78 77 92 100 96 74 79 65 41 26 27 28 27 22 20 18 18 17 16 15 16
84 76 74 100 100 100 100 100 100 100 100 100 82 12 1 2 2 5 99 100 47 18 50 67 88 99 100 86 84 86 98 92 76 60 78 95 99 100 89 73 68 55 40 36 37 34 31 26 25 24 21 20 20 20
99 96 94 95 94 99 100 100 97 97 85 67 21 1 1 2 2 16 74 90 39 14 42 45 36 34 92 91 100 100 82 65 99 96 82 98 100 100 83 64 55 54 47 46 44 41 51 51 40 30 26 24 24 32
63 97 100 100 100 100 100 100 97 81 63 30 6 1 3 7 93 100 100 66 56 100 100 98 85 74 98 89 80 79 93 100 91 84 97 99 99 97 77 65 60 77 79 68 60 60 65 71 55 38 30 29 44 56
65 31 33 69 94 91 88 85 76 38 27 14 2 2 8 22 100 88 98 100 100 100 92 93 99 75 97 86 81 87 79 83 99 98 100 100 100 94 84 98 96 88 83 92 93 96 86 74 56 39 35 52 66 78
100 95 40 32 17 21 27 25 19 19 16 2 2 4 11 83 100 90 79 99 97 100 100 90 77 88 92 89 88 99 96 90 83 98 100 91 88 96 81 90 94 87 93 97 98 89 75 56 46 52 73 84 76 62
100 100 46 22 25 22 25 22 11 5 1 10 31 94 100 100 99 100 100 100 99 99 93 88 76 71 75 72 83 92 84 92 88 91 98 86 72 74 82 95 100 100 100 94 88 83 78 72 72 90 96 84 77 68
97 68 41 7 6 4 3 5 13 32 54 22 18 70 100 100 100 100 98 82 49 41 79 80 80 69 82 84 89 91 90 84 72 68 72 64 64 87 100 99 97 99 100 100 100 98 90 85 99 98 89 82 81 80
94 92 76 16 27 61 69 20 4 26 95 100 100 100 100 100 99 95 93 94 87 69 63 63 70 73 87 91 96 91 83 79 85 79 70 78 97 100 98 97 98 100 100 99 92 94 100 100 98 98 100 98 93 95
100 100 96 85 40 55 79 99 57 76 100 100 100 100 100 94 100 99 94 89 75 74 69 81 80 81 85 82 88 97 87 86 96 91 85 96 98 96 98 99 100 100 100 100 100 100 100 100 100 100 99 100 100 100
100 100 100 100 88 99 100 91 68 63 59 58 65 92 99 98 98 100 94 96 86 80 71 71 73 73 77 90 100 96 94 99 91 97 100 98 100 100 100 100 100 98 95 99 100 100 100 100 100 100 100 100 100 100
100 100 100 99 99 96 96 93 88 83 84 79 79 94 97 100 100 100 100 98 97 79 76 74 79 92 98 95 97 99 99 100 100 100 100 100 100 97 95 99 100 100 100 100 100 100 100 100 100 100 100 100 100 100
100 100 100 100 99 100 100 100 100 99 95 87 89 90 96 93 95 96 90 100 93 90 97 92 89 87 88 92 90 97 99 99 98 96 99 100 100 100 100 100 98 98 99 99 97 100 100 100 100 100 100 100 100 100
100 100 100 100 100 94 100 100 100 100 100 100 100 100 99 100 100 94 93 89 93 100 100 93 96 93 80 86 98 93 89 94 98 100 100 100 100 100 98 99 98 100 100 100 100 100 100 100 100 100 100 100 97 59
70 94 100 100 100 99 98 87 88 94 100 100 99 100 100 100 100 100 100 100 96 95 93 97 99 100 100 98 93 99 100 100 100 100 100 100 100 100 100 100 100 100 100 100 100 100 100 100 100 100 90 48 18 13
80 74 75 90 93 99 100 100 98 94 94 99 90 85 83 93 100 100 100 100 100 99 99 99 96 95 96 96 99 100 100 100 100 100 100 100 100 100 100 100 100 100 100 100 100 100 100 98 65 35 20 14 13 12
38 70 82 80 73 86 99 100 98 96 100 100 95 100 100 99 89 95 100 100 98 100 100 100 100 100 100 100 100 100 100 100 100 100 100 100 100 100 100 100 100 100 100 100 100 86 49 26 20 14 13 13 14 15
22 22 24 30 56 76 77 98 100 100 100 100 100 100 100 100 100 100 100 100 100 100 100 100 100 100 100 100 100 100 100 100 100 100 100 100 100 100 100 100 100 100 99 83 51 27 18 14 14 14 15 16 18 23
29 28 28 24 34 49 71 79 82 88 95 100 100 100 100 100 100 100 100 100 100 100 100 100 100 100 100 100 100 100 100 100 100 100 100 100 100 100 100 100 96 82 53 27 18 15 15 15 16 17 19 25 37 48
21 35 42 42 43 46 39 63 81 88 98 98 98 99 100 100 100 100 100 100 100 100 100 100 100 100 100 99 100 100 100 100 100 100 100 100 100 99 89 64 39 23 17 15 15 15 15 17 22 31 47 63 79 93
13 16 19 35 54 53 64 71 72 82 100 100 100 100 100 100 100 100 100 100 100 100 100 100 100 100 100 100 100 100 100 100 100 98 86 63 42 26 18 16 14 14 13 14 16 23 35 46 60 79 93 98 97 99
10 12 13 16 19 34 56 47 63 92 100 100 100 100 100 100 100 100 100 100 100 100 100 100 100 100 99 97 88 81 69 54 40 25 20 14 14 13 13 14 15 17 23 36 57 62 67 79 89 98 100 100 98 93
11 11 13 16 16 19 19 26 32 29 24 25 33 46 68 77 86 85 89 91 83 80 74 67 57 47 38 29 23 17 14 13 13 13 13 13 13 15 17 21 28 39 47 56 68 77 84 90 92 87 74 60 50 44
18 16 16 17 17 18 20 22 22 22 22 22 22 22 21 20 20 19 18 18 17 17 16 16 15 15 14 14 14 13 13 13 14 16 18 23 27 31 34 35 39 45 52 52 52 48 43 38 36 37 39 42 48 50
18 16 17 18 20 18 16 18 20 21 20 20 20 20 19 19 18 17 16 16 15 15 15 15 16 16 17 18 20 22 24 25 26 27 27 26 25 25 25 25 25 26 28 30 32 34 36 38 40 38 30 24 22 24
18 18 18 18 18 18 18 18 17 16 16 16 16 16 16 16 16 16 17 18 18 20 25 29 29 29 28 28 26 25 23 22 21 20 20 21 22 24 26 29 32 33 33 32 27 22 19 20 25 33 42 49 54 56
25 25 26 25 25 25 26 25 24 24 24 25 26 26 28 28 30 33 34 34 33 34 34 32 31 28 26 23 20 19 20 20 22 25 28 30 32 31 30 25 20 18 20 25 30 36 41 46 50 53 56 57 56 54
72 71 68 64 61 62 61 52 49 48 46 45 46 44 43 42 41 36 38 36 34 31 29 26 22 21 21 22 22 27 32 34 33 32 31 26 18 17 19 22 24 26 26 27 29 31 34 38 43 48 50 49 48 48
33 34 34 37 40 42 41 39 40 37 35 32 33 30 28 27 26 25 23 23 22 21 21 22 22 26 32 35 35 33 32 30 23 18 19 21 21 21 20 21 22 23 25 27 30 35 39 41 44 46 46 41 35 30

GFSWCAN_500_rhum_063.txt.gz
RH
100 94 20 36 98 100 100 100 100 100 100 98 85 43 41 12 2 2 3 4 6 12 13 15 18 22 19 73 90 72 99 79 46 35 63 44 27 32 40 45 46 46 40 51 68 46 21 9 8 8 14 22 26 33
100 100 100 100 100 100 100 100 100 100 100 94 56 42 40 18 2 2 3 4 6 8 8 10 17 21 15 52 87 68 74 57 55 48 74 56 27 31 61 48 48 48 42 55 68 42 16 13 11 10 13 18 24 25
100 100 100 100 100 100 100 100 100 100 88 53 47 48 42 15 2 2 3 4 5 7 7 12 20 13 11 56 85 63 74 53 55 91 88 62 40 77 97 84 95 75 56 46 58 46 27 19 16 15 15 14 14 15
100 100 100 100 100 100 100 100 100 96 59 55 54 52 34 6 21 2 3 3 5 5 5 10 51 34 11 51 85 68 78 98 95 96 80 64 77 90 89 100 97 98 91 67 48 42 32 25 24 20 19 18 18 18
100 99 100 100 100 100 100 100 87 63 58 73 59 48 14 53 69 2 3 4 4 9 12 20 73 80 42 63 73 84 83 56 55 94 93 92 96 100 99 94 73 95 94 75 58 64 41 31 34 33 28 24 21 19
76 78 88 88 89 93 78 59 54 63 69 80 48 100 100 99 6 2 4 4 4 10 76 62 60 100 97 99 76 42 64 28 53 94 98 97 90 99 82 36 51 80 69 65 68 69 52 40 38 36 34 30 29 30
71 73 75 71 67 61 72 76 69 54 55 82 100 100 100 20 2 2 4 8 7 85 100 34 85 100 86 100 98 58 58 66 76 90 91 90 97 99 75 64 82 86 83 85 80 74 64 54 52 44 42 40 43 51
68 90 85 72 72 96 100 86 100 100 99 100 100 98 70 4 2 3 15 17 6 12 72 94 100 100 90 98 99 93 83 95 92 74 72 93 100 100 86 75 100 100 99 96 100 84 76 74 63 61 66 70 71 66
100 97 98 98 100 100 100 100 100 100 100 99 96 66 8 2 3 4 49 78 34 18 29 48 51 94 98 89 89 100 94 89 86 99 99 97 86 81 89 100 100 100 99 100 98 100 99 82 88 99 100 100 90 72
98 100 97 97 80 88 90 86 84 89 84 68 50 7 2 2 70 100 100 100 98 38 32 100 44 78 62 50 95 96 99 100 99 95 98 93 82 81 99 93 100 100 100 98 99 99 100 100 99 99 99 96 84 72
38 79 89 90 88 77 75 72 63 57 45 23 5 2 3 10 54 90 100 100 90 93 97 98 95 100 92 99 100 94 98 89 73 72 79 66 50 72 94 99 96 96 96 97 98 100 100 100 99 100 100 97 93 97
14 18 33 51 61 69 48 27 22 35 44 4 2 26 100 100 100 100 100 100 93 98 100 100 100 98 96 97 86 86 83 87 71 70 69 46 60 84 87 88 92 97 98 87 85 94 95 97 100 100 100 100 100 100
5 7 15 23 26 32 46 95 100 97 13 4 9 45 100 100 100 95 97 93 78 80 100 99 86 97 98 83 70 72 71 65 64 60 47 54 70 72 67 72 77 78 82 89 98 95 97 100 100 100 100 100 100 100
38 93 100 100 100 100 48 83 62 53 56 100 100 84 99 98 94 100 100 100 100 99 98 94 94 94 87 84 83 73 73 78 62 65 68 65 73 85 92 94 99 100 100 100 97 100 99 100 100 100 100 100 100 100
82 44 40 88 90 34 13 78 31 25 61 97 100 100 100 100 100 98 100 100 100 94 90 87 82 82 80 74 76 71 63 60 51 71 82 68 68 79 95 97 100 100 100 100 100 100 100 100 100 100 100 98 93 94
89 89 78 41 77 94 79 93 97 99 100 100 100 100 100 100 100 100 100 100 96 93 89 80 67 64 66 68 67 72 77 94 96 91 93 82 70 76 86 97 100 100 100 100 100 100 100 100 100 98 90 89 95 98
96 100 98 93 61 56 67 86 98 100 100 99 100 100 100 100 100 100 100 100 100 100 97 77 71 73 73 91 100 100 95 91 86 87 88 90 100 100 100 100 100 100 100 100 100 100 100 98 92 89 93 98 100 100
100 100 100 100 100 100 93 81 80 84 77 94 95 96 96 96 93 93 98 98 96 91 90 91 86 79 81 83 92 92 89 88 83 79 87 96 99 100 100 98 99 100 100 100 100 100 99 95 95 97 99 100 100 100
100 99 98 100 100 100 93 94 99 98 95 93 88 90 99 98 95 99 99 98 93 88 83 81 80 81 84 85 96 100 100 100 95 91 95 98 100 99 98 98 100 100 100 100 98 96 96 98 100 100 100 100 100 100
99 100 100 91 84 99 79 78 84 86 88 92 94 91 88 96 98 97 100 100 100 100 100 100 98 99 94 94 100 100 100 100 100 95 93 94 96 100 100 100 100 100 100 99 100 100 100 100 100 100 100 100 93 66
81 89 100 100 100 100 100 98 81 85 86 86 93 92 93 91 96 99 100 94 95 100 98 97 99 100 100 100 100 93 90 95 99 100 100 100 100 100 100 100 100 100 100 100 100 100 100 100 100 100 94 76 54 28
39 66 79 88 97 99 95 99 95 100 100 99 98 98 99 91 83 89 100 100 100 100 100 100 100 100 100 100 100 100 100 100 100 100 100 100 100 100 100 100 100 100 100 100 100 100 100 100 98 87 64 35 18 16
25 24 26 30 39 47 68 73 89 88 88 91 96 98 99 100 100 100 100 100 100 100 100 100 100 100 100 100 100 100 100 100 100 100 100 100 100 100 100 100 100 100 100 100 100 99 90 70 43 24 17 16 17 21
26 32 36 34 39 50 57 92 97 100 100 100 100 100 100 100 100 100 100 100 100 100 100 100 100 100 100 100 100 100 100 100 100 100 100 100 100 100 100 100 100 100 96 88 66 40 23 16 14 15 18 22 35 47
9 10 14 25 44 58 72 82 100 100 100 100 100 100 100 100 100 100 100 100 100 100 100 100 100 100 100 100 100 100 100 100 100 100 100 100 100 99 96 85 66 43 23 18 15 14 15 16 18 23 29 35 42 53
8 9 9 9 10 14 23 43 61 79 98 100 100 100 100 100 100 100 100 100 100 100 100 100 100 100 100 100 100 100 100 100 99 98 87 72 54 35 24 18 15 14 15 15 17 18 19 21 23 26 27 27 29 31
10 10 10 10 10 12 13 16 27 46 46 54 87 100 100 100 100 100 100 100 100 100 100 100 100 100 99 98 94 88 79 60 37 27 20 15 14 14 15 16 16 17 17 17 17 18 18 20 22 25 28 30 32 32
16 13 13 16 15 14 16 18 20 20 24 30 29 25 24 26 32 40 52 61 63 55 45 36 27 24 21 18 17 16 15 15 15 15 15 16 17 16 16 15 15 16 16 17 20 23 27 30 30 28 24 21 21 23
21 20 20 20 20 18 16 18 18 21 24 25 24 24 24 23 23 22 22 21 19 19 18 18 17 17 16 16 16 16 17 18 19 19 17 16 15 15 15 16 19 23 27 29 28 23 17 15 16 17 20 22 25 28
21 20 19 18 18 18 18 18 20 18 17 17 19 19 20 20 19 18 18 17 17 16 17 17 18 19 20 21 22 22 21 19 18 16 16 17 19 21 26 28 27 23 17 13 14 14 15 16 18 19 21 23 26 31
22 22 22 22 22 22 22 21 21 21 20 20 20 20 20 20 21 22 23 25 26 26 26 27 27 27 26 24 22 20 18 18 18 19 23 26 27 27 23 16 14 14 14 14 14 15 16 17 20 22 26 30 34 37
64 62 58 54 50 49 48 46 45 42 40 39 39 38 38 39 40 40 42 41 41 38 35 32 28 24 21 19 18 18 19 24 28 29 28 24 16 14 14 15 15 16 17 17 16 16 17 19 22 26 29 30 28 26
31 33 35 41 45 48 48 50 53 52 50 46 42 39 35 33 32 30 27 26 24 23 21 20 20 20 20 22 26 31 31 30 26 19 16 16 16 16 18 19 20 20 20 20 19 19 19 21 24 25 26 25 25 27